Observation data for Stamford on 02/14/2020      Previous  Date  Next       Current Mesonet Observations  Soil Data  Daily Summary Page  Observations in Plain Language
KST2 140600Z 07008KT M01/M05 A3038 RMK A01 T10111048  RH  076%=      5-min Rain = 0
KST2 140601Z 06008KT M01/M05 A3038 RMK A01 T10121049  RH  076%=      5-min Rain = 0
KST2 140602Z 07008KT M01/M05 A3038 RMK A01 T10121048  RH  076%=      5-min Rain = 0
KST2 140603Z 06007KT M01/M05 A3038 RMK A01 T10121048  RH  076%=      5-min Rain = 0
KST2 140604Z 07008KT M01/M05 A3038 RMK A01 T10121048  RH  076%=      5-min Rain = 0
KST2 140605Z 07007KT M01/M05 A3038 RMK A01 T10121049  RH  076%=      5-min Rain = 0
KST2 140606Z 07007KT M01/M05 A3038 RMK A01 T10121048  RH  076%=      5-min Rain = 0
KST2 140607Z 07006KT M01/M05 A3038 RMK A01 T10121049  RH  076%=      5-min Rain = 0
KST2 140608Z 07007KT M01/M05 A3038 RMK A01 T10121048  RH  076%=      5-min Rain = 0
KST2 140609Z 07006KT M01/M05 A3038 RMK A01 T10121049  RH  076%=      5-min Rain = 0
KST2 140610Z 07008KT M01/M05 A3038 RMK A01 T10121048  RH  077%=      5-min Rain = 0
KST2 140611Z 07007KT M01/M05 A3038 RMK A01 T10121048  RH  077%=      5-min Rain = 0
KST2 140612Z 07007KT M01/M05 A3038 RMK A01 T10121047  RH  077%=      5-min Rain = 0
KST2 140613Z 07007KT M01/M05 A3038 RMK A01 T10121047  RH  077%=      5-min Rain = 0
KST2 140614Z 07007KT M01/M05 A3038 RMK A01 T10131048  RH  077%=      5-min Rain = 0
KST2 140615Z 07007KT M01/M05 A3038 RMK A01 T10121047  RH  077%=      5-min Rain = 0
KST2 140616Z 07006KT M01/M05 A3038 RMK A01 T10131048  RH  077%=      5-min Rain = 0
KST2 140617Z 07007KT M01/M05 A3038 RMK A01 T10131048  RH  077%=      5-min Rain = 0
KST2 140618Z 07007KT M01/M05 A3038 RMK A01 T10131048  RH  077%=      5-min Rain = 0
KST2 140619Z 07007KT M01/M05 A3038 RMK A01 T10131048  RH  077%=      5-min Rain = 0
KST2 140620Z 07007KT M01/M05 A3038 RMK A01 T10131048  RH  077%=      5-min Rain = 0
KST2 140621Z 08006KT M01/M05 A3038 RMK A01 T10131048  RH  077%=      5-min Rain = 0
KST2 140622Z 07006KT M01/M05 A3038 RMK A01 T10131048  RH  077%=      5-min Rain = 0
KST2 140623Z 07007KT M01/M05 A3038 RMK A01 T10131049  RH  077%=      5-min Rain = 0
KST2 140624Z 07006KT M01/M05 A3038 RMK A01 T10131049  RH  077%=      5-min Rain = 0
KST2 140625Z 07006KT M01/M05 A3038 RMK A01 T10141048  RH  078%=      5-min Rain = 0
KST2 140626Z 07006KT M01/M05 A3038 RMK A01 T10141048  RH  078%=      5-min Rain = 0
KST2 140627Z 07007KT M01/M05 A3038 RMK A01 T10141048  RH  078%=      5-min Rain = 0
KST2 140628Z 07007KT M01/M05 A3038 RMK A01 T10141049  RH  077%=      5-min Rain = 0
KST2 140629Z 07007KT M01/M05 A3038 RMK A01 T10141050  RH  077%=      5-min Rain = 0
KST2 140630Z 07006KT M01/M05 A3038 RMK A01 T10141050  RH  077%=      5-min Rain = 0
KST2 140631Z 07006KT M01/M05 A3038 RMK A01 T10141048  RH  077%=      5-min Rain = 0
KST2 140632Z 08005KT M01/M05 A3038 RMK A01 T10141049  RH  077%=      5-min Rain = 0
KST2 140633Z 07006KT M01/M05 A3038 RMK A01 T10141049  RH  077%=      5-min Rain = 0
KST2 140634Z 07006KT M01/M05 A3038 RMK A01 T10141050  RH  077%=      5-min Rain = 0
KST2 140635Z 07006KT M02/M05 A3038 RMK A01 T10151050  RH  077%=      5-min Rain = 0
KST2 140636Z 07006KT M02/M05 A3038 RMK A01 T10151051  RH  077%=      5-min Rain = 0
KST2 140637Z 07006KT M02/M05 A3038 RMK A01 T10151050  RH  077%=      5-min Rain = 0
KST2 140638Z 07007KT M02/M05 A3038 RMK A01 T10151049  RH  077%=      5-min Rain = 0
KST2 140639Z 08005KT M02/M05 A3038 RMK A01 T10151050  RH  077%=      5-min Rain = 0
KST2 140640Z 07005KT M02/M05 A3038 RMK A01 T10151049  RH  077%=      5-min Rain = 0
KST2 140641Z 08006KT M02/M05 A3038 RMK A01 T10151048  RH  078%=      5-min Rain = 0
KST2 140642Z 08005KT M02/M05 A3038 RMK A01 T10151048  RH  078%=      5-min Rain = 0
KST2 140643Z 08005KT M02/M05 A3038 RMK A01 T10151048  RH  078%=      5-min Rain = 0
KST2 140644Z 08006KT M02/M05 A3038 RMK A01 T10151049  RH  078%=      5-min Rain = 0
KST2 140645Z 08006KT M02/M05 A3038 RMK A01 T10151050  RH  077%=      5-min Rain = 0
KST2 140646Z 07006KT M02/M05 A3038 RMK A01 T10151050  RH  077%=      5-min Rain = 0
KST2 140647Z 07006KT M02/M05 A3038 RMK A01 T10151050  RH  077%=      5-min Rain = 0
KST2 140648Z 07006KT M02/M05 A3038 RMK A01 T10151049  RH  078%=      5-min Rain = 0
KST2 140649Z 07006KT M02/M05 A3038 RMK A01 T10151050  RH  077%=      5-min Rain = 0
KST2 140650Z 07006KT M02/M05 A3038 RMK A01 T10161051  RH  077%=      5-min Rain = 0
KST2 140651Z 07005KT M02/M05 A3038 RMK A01 T10161050  RH  077%=      5-min Rain = 0
KST2 140652Z 08005KT M02/M05 A3038 RMK A01 T10161051  RH  077%=      5-min Rain = 0
KST2 140653Z 08006KT M02/M05 A3038 RMK A01 T10161051  RH  077%=      5-min Rain = 0
KST2 140654Z 08006KT M02/M05 A3038 RMK A01 T10161050  RH  077%=      5-min Rain = 0
KST2 140655Z 09005KT M02/M05 A3038 RMK A01 T10161051  RH  077%=      5-min Rain = 0
KST2 140656Z 08005KT M02/M05 A3038 RMK A01 T10161050  RH  078%=      5-min Rain = 0
KST2 140657Z 08006KT M02/M05 A3038 RMK A01 T10161051  RH  078%=      5-min Rain = 0
KST2 140658Z 09006KT M02/M05 A3038 RMK A01 T10161051  RH  077%=      5-min Rain = 0
KST2 140659Z 08006KT M02/M05 A3038 RMK A01 T10161053  RH  076%=      5-min Rain = 0
KST2 140700Z 08005KT M02/M05 A3038 RMK A01 T10171052  RH  077%=      5-min Rain = 0
KST2 140701Z 08005KT M02/M05 A3038 RMK A01 T10171052  RH  077%=      5-min Rain = 0
KST2 140702Z 07005KT M02/M05 A3038 RMK A01 T10171053  RH  077%=      5-min Rain = 0
KST2 140703Z 08006KT M02/M05 A3038 RMK A01 T10171052  RH  077%=      5-min Rain = 0
KST2 140704Z 08007KT M02/M05 A3038 RMK A01 T10171053  RH  076%=      5-min Rain = 0
KST2 140705Z 08006KT M02/M05 A3038 RMK A01 T10171054  RH  076%=      5-min Rain = 0
KST2 140706Z 08006KT M02/M05 A3038 RMK A01 T10171054  RH  076%=      5-min Rain = 0
KST2 140707Z 08006KT M02/M05 A3038 RMK A01 T10171054  RH  076%=      5-min Rain = 0
KST2 140708Z 07006KT M02/M05 A3038 RMK A01 T10171054  RH  076%=      5-min Rain = 0
KST2 140709Z 08006KT M02/M05 A3038 RMK A01 T10171053  RH  076%=      5-min Rain = 0
KST2 140710Z 07005KT M02/M05 A3038 RMK A01 T10171053  RH  077%=      5-min Rain = 0
KST2 140711Z 07007KT M02/M05 A3038 RMK A01 T10171054  RH  076%=      5-min Rain = 0
KST2 140712Z 08006KT M02/M06 A3038 RMK A01 T10171055  RH  075%=      5-min Rain = 0
KST2 140713Z 07006KT M02/M06 A3038 RMK A01 T10171055  RH  076%=      5-min Rain = 0
KST2 140714Z 07006KT M02/M05 A3038 RMK A01 T10171054  RH  076%=      5-min Rain = 0
KST2 140715Z 07006KT M02/M06 A3038 RMK A01 T10181055  RH  076%=      5-min Rain = 0
KST2 140716Z 07006KT M02/M06 A3038 RMK A01 T10181056  RH  075%=      5-min Rain = 0
KST2 140717Z 07006KT M02/M06 A3038 RMK A01 T10181055  RH  076%=      5-min Rain = 0
KST2 140718Z 06006KT M02/M06 A3038 RMK A01 T10181055  RH  076%=      5-min Rain = 0
KST2 140719Z 07007KT M02/M06 A3038 RMK A01 T10181055  RH  076%=      5-min Rain = 0
KST2 140720Z 07006KT M02/M06 A3038 RMK A01 T10181056  RH  075%=      5-min Rain = 0
KST2 140721Z 07006KT M02/M06 A3038 RMK A01 T10181055  RH  076%=      5-min Rain = 0
KST2 140722Z 07007KT M02/M06 A3038 RMK A01 T10181057  RH  075%=      5-min Rain = 0
KST2 140723Z 07005KT M02/M06 A3038 RMK A01 T10191057  RH  075%=      5-min Rain = 0
KST2 140724Z 07006KT M02/M06 A3038 RMK A01 T10191056  RH  076%=      5-min Rain = 0
KST2 140725Z 07006KT M02/M06 A3038 RMK A01 T10181056  RH  076%=      5-min Rain = 0
KST2 140726Z 07006KT M02/M06 A3038 RMK A01 T10181055  RH  076%=      5-min Rain = 0
KST2 140727Z 07007KT M02/M06 A3038 RMK A01 T10181056  RH  076%=      5-min Rain = 0
KST2 140728Z 07007KT M02/M06 A3038 RMK A01 T10181056  RH  075%=      5-min Rain = 0
KST2 140729Z 07006KT M02/M06 A3038 RMK A01 T10181056  RH  076%=      5-min Rain = 0
KST2 140730Z 07006KT M02/M06 A3038 RMK A01 T10191056  RH  075%=      5-min Rain = 0
KST2 140731Z 07006KT M02/M06 A3038 RMK A01 T10191056  RH  076%=      5-min Rain = 0
KST2 140732Z 07006KT M02/M06 A3038 RMK A01 T10191056  RH  076%=      5-min Rain = 0
KST2 140733Z 08006KT M02/M06 A3038 RMK A01 T10191056  RH  076%=      5-min Rain = 0
KST2 140734Z 07007KT M02/M06 A3038 RMK A01 T10191057  RH  076%=      5-min Rain = 0
KST2 140735Z 06006KT M02/M06 A3038 RMK A01 T10191057  RH  075%=      5-min Rain = 0
KST2 140736Z 07006KT M02/M06 A3038 RMK A01 T10191056  RH  076%=      5-min Rain = 0
KST2 140737Z 06006KT M02/M06 A3038 RMK A01 T10191055  RH  077%=      5-min Rain = 0
KST2 140738Z 06006KT M02/M05 A3038 RMK A01 T10191054  RH  077%=      5-min Rain = 0
KST2 140739Z 06007KT M02/M05 A3038 RMK A01 T10191054  RH  077%=      5-min Rain = 0
KST2 140740Z 06006KT M02/M06 A3038 RMK A01 T10191056  RH  076%=      5-min Rain = 0
KST2 140741Z 06007KT M02/M06 A3038 RMK A01 T10201056  RH  076%=      5-min Rain = 0
KST2 140742Z 06006KT M02/M06 A3038 RMK A01 T10201056  RH  076%=      5-min Rain = 0
KST2 140743Z 06006KT M02/M06 A3038 RMK A01 T10201055  RH  076%=      5-min Rain = 0
KST2 140744Z 06006KT M02/M06 A3038 RMK A01 T10201055  RH  077%=      5-min Rain = 0
KST2 140745Z 06006KT M02/M06 A3038 RMK A01 T10191055  RH  076%=      5-min Rain = 0
KST2 140746Z 06006KT M02/M06 A3039 RMK A01 T10201056  RH  076%=      5-min Rain = 0
KST2 140747Z 06006KT M02/M06 A3039 RMK A01 T10201056  RH  077%=      5-min Rain = 0
KST2 140748Z 06006KT M02/M06 A3039 RMK A01 T10201056  RH  076%=      5-min Rain = 0
KST2 140749Z 06006KT M02/M06 A3039 RMK A01 T10201055  RH  077%=      5-min Rain = 0
KST2 140750Z 06007KT M02/M06 A3039 RMK A01 T10201056  RH  077%=      5-min Rain = 0
KST2 140751Z 06006KT M02/M06 A3039 RMK A01 T10211057  RH  076%=      5-min Rain = 0
KST2 140752Z 06005KT M02/M06 A3039 RMK A01 T10211057  RH  076%=      5-min Rain = 0
KST2 140753Z 06006KT M02/M06 A3039 RMK A01 T10201055  RH  077%=      5-min Rain = 0
KST2 140754Z 06007KT M02/M06 A3039 RMK A01 T10201055  RH  077%=      5-min Rain = 0
KST2 140755Z 06007KT M02/M06 A3039 RMK A01 T10201056  RH  077%=      5-min Rain = 0
KST2 140756Z 06007KT M02/M06 A3039 RMK A01 T10211056  RH  077%=      5-min Rain = 0
KST2 140757Z 06006KT M02/M06 A3039 RMK A01 T10211058  RH  076%=      5-min Rain = 0
KST2 140758Z 06007KT M02/M06 A3039 RMK A01 T10211058  RH  076%=      5-min Rain = 0
KST2 140759Z 06006KT M02/M06 A3039 RMK A01 T10211058  RH  076%=      5-min Rain = 0
KST2 140800Z 06006KT M02/M06 A3039 RMK A01 T10211057  RH  076%=      5-min Rain = 0
KST2 140801Z 06006KT M02/M06 A3039 RMK A01 T10221057  RH  077%=      5-min Rain = 0
KST2 140802Z 06007KT M02/M06 A3039 RMK A01 T10211056  RH  077%=      5-min Rain = 0
KST2 140803Z 07007KT M02/M06 A3039 RMK A01 T10211057  RH  077%=      5-min Rain = 0
KST2 140804Z 06006KT M02/M06 A3039 RMK A01 T10211057  RH  077%=      5-min Rain = 0
KST2 140805Z 07007KT M02/M06 A3039 RMK A01 T10211057  RH  077%=      5-min Rain = 0
KST2 140806Z 07006KT M02/M06 A3039 RMK A01 T10211057  RH  077%=      5-min Rain = 0
KST2 140807Z 07006KT M02/M06 A3039 RMK A01 T10221057  RH  077%=      5-min Rain = 0
KST2 140808Z 07006KT M02/M06 A3039 RMK A01 T10211057  RH  077%=      5-min Rain = 0
KST2 140809Z 07006KT M02/M06 A3039 RMK A01 T10211057  RH  077%=      5-min Rain = 0
KST2 140810Z 07006KT M02/M06 A3039 RMK A01 T10211056  RH  077%=      5-min Rain = 0
KST2 140811Z 08006KT M02/M06 A3039 RMK A01 T10221057  RH  077%=      5-min Rain = 0
KST2 140812Z 07006KT M02/M06 A3039 RMK A01 T10221058  RH  076%=      5-min Rain = 0
KST2 140813Z 07006KT M02/M06 A3039 RMK A01 T10221056  RH  077%=      5-min Rain = 0
KST2 140814Z 07007KT M02/M06 A3039 RMK A01 T10211056  RH  077%=      5-min Rain = 0
KST2 140815Z 07007KT M02/M06 A3039 RMK A01 T10211057  RH  076%=      5-min Rain = 0
KST2 140816Z 07006KT M02/M06 A3039 RMK A01 T10221058  RH  076%=      5-min Rain = 0
KST2 140817Z 08005KT M02/M06 A3039 RMK A01 T10221057  RH  077%=      5-min Rain = 0
KST2 140818Z 08006KT M02/M06 A3038 RMK A01 T10221056  RH  077%=      5-min Rain = 0
KST2 140819Z 08007KT M02/M06 A3038 RMK A01 T10221056  RH  077%=      5-min Rain = 0
KST2 140820Z 07006KT M02/M06 A3038 RMK A01 T10221057  RH  077%=      5-min Rain = 0
KST2 140821Z 08006KT M02/M06 A3038 RMK A01 T10221057  RH  077%=      5-min Rain = 0
KST2 140822Z 08006KT M02/M06 A3038 RMK A01 T10221058  RH  076%=      5-min Rain = 0
KST2 140823Z 08007KT M02/M06 A3038 RMK A01 T10221058  RH  076%=      5-min Rain = 0
KST2 140824Z 08006KT M02/M06 A3038 RMK A01 T10221058  RH  076%=      5-min Rain = 0
KST2 140825Z 08006KT M02/M06 A3038 RMK A01 T10221058  RH  077%=      5-min Rain = 0
KST2 140826Z 08006KT M02/M06 A3038 RMK A01 T10221058  RH  077%=      5-min Rain = 0
KST2 140827Z 08006KT M02/M06 A3038 RMK A01 T10221057  RH  077%=      5-min Rain = 0
KST2 140828Z 08006KT M02/M06 A3038 RMK A01 T10221057  RH  077%=      5-min Rain = 0
KST2 140829Z 08007KT M02/M06 A3038 RMK A01 T10221057  RH  077%=      5-min Rain = 0
KST2 140830Z 08006KT M02/M06 A3038 RMK A01 T10221058  RH  077%=      5-min Rain = 0
KST2 140831Z 07006KT M02/M06 A3038 RMK A01 T10221058  RH  076%=      5-min Rain = 0
KST2 140832Z 07007KT M02/M06 A3038 RMK A01 T10221058  RH  077%=      5-min Rain = 0
KST2 140833Z 07006KT M02/M06 A3038 RMK A01 T10231058  RH  076%=      5-min Rain = 0
KST2 140834Z 08007KT M02/M06 A3038 RMK A01 T10231058  RH  077%=      5-min Rain = 0
KST2 140835Z 07006KT M02/M06 A3038 RMK A01 T10231059  RH  076%=      5-min Rain = 0
KST2 140836Z 07005KT M02/M06 A3039 RMK A01 T10231058  RH  077%=      5-min Rain = 0
KST2 140837Z 08006KT M02/M06 A3039 RMK A01 T10231057  RH  077%=      5-min Rain = 0
KST2 140838Z 08007KT M02/M06 A3038 RMK A01 T10231057  RH  077%=      5-min Rain = 0
KST2 140839Z 08007KT M02/M06 A3038 RMK A01 T10231059  RH  076%=      5-min Rain = 0
KST2 140840Z 08006KT M02/M06 A3038 RMK A01 T10231059  RH  076%=      5-min Rain = 0
KST2 140841Z 08006KT M02/M06 A3038 RMK A01 T10231059  RH  077%=      5-min Rain = 0
KST2 140842Z 08006KT M02/M06 A3038 RMK A01 T10231059  RH  076%=      5-min Rain = 0
KST2 140843Z 08005KT M02/M06 A3038 RMK A01 T10231058  RH  077%=      5-min Rain = 0
KST2 140844Z 08006KT M02/M06 A3039 RMK A01 T10231057  RH  077%=      5-min Rain = 0
KST2 140845Z 08005KT M02/M06 A3039 RMK A01 T10231058  RH  077%=      5-min Rain = 0
KST2 140846Z 08006KT M02/M06 A3039 RMK A01 T10231058  RH  077%=      5-min Rain = 0
KST2 140847Z 08006KT M02/M06 A3039 RMK A01 T10231058  RH  077%=      5-min Rain = 0
KST2 140848Z 08006KT M02/M06 A3039 RMK A01 T10241059  RH  077%=      5-min Rain = 0
KST2 140849Z 08005KT M02/M06 A3039 RMK A01 T10231058  RH  077%=      5-min Rain = 0
KST2 140850Z 08005KT M02/M06 A3039 RMK A01 T10241057  RH  078%=      5-min Rain = 0
KST2 140851Z 08006KT M02/M06 A3039 RMK A01 T10241059  RH  077%=      5-min Rain = 0
KST2 140852Z 07006KT M02/M06 A3039 RMK A01 T10241059  RH  077%=      5-min Rain = 0
KST2 140853Z 07006KT M02/M06 A3039 RMK A01 T10241059  RH  077%=      5-min Rain = 0
KST2 140854Z 07006KT M02/M06 A3039 RMK A01 T10241059  RH  077%=      5-min Rain = 0
KST2 140855Z 07006KT M02/M06 A3039 RMK A01 T10241058  RH  077%=      5-min Rain = 0
KST2 140856Z 07005KT M02/M06 A3039 RMK A01 T10241058  RH  077%=      5-min Rain = 0
KST2 140857Z 07005KT M02/M06 A3039 RMK A01 T10241059  RH  077%=      5-min Rain = 0
KST2 140858Z 08006KT M02/M06 A3039 RMK A01 T10241058  RH  078%=      5-min Rain = 0
KST2 140859Z 07005KT M02/M06 A3039 RMK A01 T10241058  RH  077%=      5-min Rain = 0
KST2 140900Z 07005KT M02/M06 A3039 RMK A01 T10241058  RH  077%=      5-min Rain = 0
KST2 140901Z 07005KT M02/M06 A3039 RMK A01 T10241058  RH  077%=      5-min Rain = 0
KST2 140902Z 07006KT M02/M06 A3039 RMK A01 T10241058  RH  077%=      5-min Rain = 0
KST2 140903Z 06005KT M02/M06 A3039 RMK A01 T10241058  RH  077%=      5-min Rain = 0
KST2 140904Z 07006KT M02/M06 A3039 RMK A01 T10241058  RH  078%=      5-min Rain = 0
KST2 140905Z 07005KT M02/M06 A3039 RMK A01 T10241058  RH  077%=      5-min Rain = 0
KST2 140906Z 06005KT M02/M06 A3039 RMK A01 T10241057  RH  078%=      5-min Rain = 0
KST2 140907Z 07005KT M02/M06 A3039 RMK A01 T10241058  RH  078%=      5-min Rain = 0
KST2 140908Z 07006KT M02/M06 A3039 RMK A01 T10241059  RH  077%=      5-min Rain = 0
KST2 140909Z 07006KT M03/M06 A3039 RMK A01 T10251060  RH  077%=      5-min Rain = 0
KST2 140910Z 07006KT M03/M06 A3039 RMK A01 T10251059  RH  077%=      5-min Rain = 0
KST2 140911Z 06005KT M03/M06 A3039 RMK A01 T10251059  RH  078%=      5-min Rain = 0
KST2 140912Z 07005KT M03/M06 A3039 RMK A01 T10251058  RH  078%=      5-min Rain = 0
KST2 140913Z 07006KT M03/M06 A3039 RMK A01 T10251059  RH  077%=      5-min Rain = 0
KST2 140914Z 07005KT M03/M06 A3039 RMK A01 T10251060  RH  077%=      5-min Rain = 0
KST2 140915Z 07005KT M03/M06 A3039 RMK A01 T10251059  RH  078%=      5-min Rain = 0
KST2 140916Z 07005KT M03/M06 A3039 RMK A01 T10251059  RH  077%=      5-min Rain = 0
KST2 140917Z 08004KT M03/M06 A3039 RMK A01 T10251059  RH  077%=      5-min Rain = 0
KST2 140918Z 08005KT M03/M06 A3039 RMK A01 T10251060  RH  077%=      5-min Rain = 0
KST2 140919Z 07004KT M03/M06 A3039 RMK A01 T10251060  RH  077%=      5-min Rain = 0
KST2 140920Z 07005KT M03/M06 A3039 RMK A01 T10251060  RH  077%=      5-min Rain = 0
KST2 140921Z 07004KT M03/M06 A3039 RMK A01 T10251060  RH  077%=      5-min Rain = 0
KST2 140922Z 07004KT M03/M06 A3039 RMK A01 T10251059  RH  077%=      5-min Rain = 0
KST2 140923Z 07005KT M03/M06 A3039 RMK A01 T10251059  RH  077%=      5-min Rain = 0
KST2 140924Z 07004KT M03/M06 A3039 RMK A01 T10251059  RH  077%=      5-min Rain = 0
KST2 140925Z 07005KT M03/M06 A3039 RMK A01 T10251059  RH  078%=      5-min Rain = 0
KST2 140926Z 07004KT M03/M06 A3039 RMK A01 T10251059  RH  078%=      5-min Rain = 0
KST2 140927Z 07005KT M03/M06 A3039 RMK A01 T10251058  RH  078%=      5-min Rain = 0
KST2 140928Z 08005KT M03/M06 A3039 RMK A01 T10251059  RH  077%=      5-min Rain = 0
KST2 140929Z 07005KT M03/M06 A3039 RMK A01 T10251060  RH  077%=      5-min Rain = 0
KST2 140930Z 07004KT M03/M06 A3039 RMK A01 T10251060  RH  077%=      5-min Rain = 0
KST2 140931Z 07004KT M03/M06 A3039 RMK A01 T10251059  RH  078%=      5-min Rain = 0
KST2 140932Z 07005KT M03/M06 A3039 RMK A01 T10251058  RH  078%=      5-min Rain = 0
KST2 140933Z 07005KT M03/M06 A3039 RMK A01 T10251059  RH  077%=      5-min Rain = 0
KST2 140934Z 07005KT M03/M06 A3039 RMK A01 T10251059  RH  077%=      5-min Rain = 0
KST2 140935Z 07005KT M03/M06 A3039 RMK A01 T10251059  RH  078%=      5-min Rain = 0
KST2 140936Z 07004KT M03/M06 A3039 RMK A01 T10251058  RH  078%=      5-min Rain = 0
KST2 140937Z 07004KT M03/M06 A3039 RMK A01 T10251058  RH  078%=      5-min Rain = 0
KST2 140938Z 07004KT M03/M06 A3039 RMK A01 T10251057  RH  078%=      5-min Rain = 0
KST2 140939Z 07004KT M03/M06 A3039 RMK A01 T10251058  RH  078%=      5-min Rain = 0
KST2 140940Z 07004KT M03/M06 A3039 RMK A01 T10251058  RH  078%=      5-min Rain = 0
KST2 140941Z 07005KT M03/M06 A3039 RMK A01 T10251058  RH  078%=      5-min Rain = 0
KST2 140942Z 06005KT M03/M06 A3039 RMK A01 T10251059  RH  078%=      5-min Rain = 0
KST2 140943Z 07005KT M03/M06 A3039 RMK A01 T10251059  RH  077%=      5-min Rain = 0
KST2 140944Z 06006KT M03/M06 A3039 RMK A01 T10261060  RH  077%=      5-min Rain = 0
KST2 140945Z 06006KT M03/M06 A3039 RMK A01 T10261060  RH  077%=      5-min Rain = 0
KST2 140946Z 06005KT M03/M06 A3039 RMK A01 T10261060  RH  078%=      5-min Rain = 0
KST2 140947Z 06006KT M03/M06 A3039 RMK A01 T10261060  RH  078%=      5-min Rain = 0
KST2 140948Z 06006KT M03/M06 A3039 RMK A01 T10261060  RH  077%=      5-min Rain = 0
KST2 140949Z 07006KT M03/M06 A3039 RMK A01 T10261060  RH  077%=      5-min Rain = 0
KST2 140950Z 06005KT M03/M06 A3039 RMK A01 T10271060  RH  078%=      5-min Rain = 0
KST2 140951Z 06006KT M03/M06 A3039 RMK A01 T10261058  RH  079%=      5-min Rain = 0
KST2 140952Z 06006KT M03/M06 A3039 RMK A01 T10261060  RH  078%=      5-min Rain = 0
KST2 140953Z 06005KT M03/M06 A3039 RMK A01 T10261060  RH  077%=      5-min Rain = 0
KST2 140954Z 07005KT M03/M06 A3039 RMK A01 T10261059  RH  078%=      5-min Rain = 0
KST2 140955Z 06005KT M03/M06 A3039 RMK A01 T10261059  RH  078%=      5-min Rain = 0
KST2 140956Z 06006KT M03/M06 A3039 RMK A01 T10261058  RH  078%=      5-min Rain = 0
KST2 140957Z 07006KT M03/M06 A3039 RMK A01 T10261058  RH  078%=      5-min Rain = 0
KST2 140958Z 07006KT M03/M06 A3039 RMK A01 T10261059  RH  078%=      5-min Rain = 0
KST2 140959Z 07006KT M03/M06 A3039 RMK A01 T10261059  RH  078%=      5-min Rain = 0
KST2 141000Z 07006KT M03/M06 A3039 RMK A01 T10271060  RH  078%=      5-min Rain = 0
KST2 141001Z 06005KT M03/M06 A3039 RMK A01 T10271060  RH  078%=      5-min Rain = 0
KST2 141002Z 07005KT M03/M06 A3039 RMK A01 T10261059  RH  078%=      5-min Rain = 0
KST2 141003Z 06005KT M03/M06 A3039 RMK A01 T10261059  RH  078%=      5-min Rain = 0
KST2 141004Z 06005KT M03/M06 A3039 RMK A01 T10261059  RH  079%=      5-min Rain = 0
KST2 141005Z 06005KT M03/M06 A3039 RMK A01 T10261059  RH  078%=      5-min Rain = 0
KST2 141006Z 07004KT M03/M06 A3039 RMK A01 T10261059  RH  078%=      5-min Rain = 0
KST2 141007Z 06004KT M03/M06 A3039 RMK A01 T10261058  RH  079%=      5-min Rain = 0
KST2 141008Z 07003KT M03/M06 A3039 RMK A01 T10261058  RH  079%=      5-min Rain = 0
KST2 141009Z 07003KT M03/M06 A3039 RMK A01 T10261058  RH  079%=      5-min Rain = 0
KST2 141010Z 07004KT M03/M06 A304 RMK A01 T10261057  RH  079%=      5-min Rain = 0
KST2 141011Z 06003KT M03/M06 A304 RMK A01 T10261058  RH  079%=      5-min Rain = 0
KST2 141012Z 07004KT M03/M06 A3039 RMK A01 T10261058  RH  079%=      5-min Rain = 0
KST2 141013Z 06004KT M03/M06 A3039 RMK A01 T10261058  RH  079%=      5-min Rain = 0
KST2 141014Z 06004KT M03/M06 A3039 RMK A01 T10261057  RH  079%=      5-min Rain = 0
KST2 141015Z 06004KT M03/M06 A3039 RMK A01 T10261057  RH  079%=      5-min Rain = 0
KST2 141016Z 06004KT M03/M06 A3039 RMK A01 T10261058  RH  079%=      5-min Rain = 0
KST2 141017Z 06004KT M03/M06 A3039 RMK A01 T10261058  RH  079%=      5-min Rain = 0
KST2 141018Z 06004KT M03/M06 A3039 RMK A01 T10261058  RH  079%=      5-min Rain = 0
KST2 141019Z 07004KT M03/M06 A3039 RMK A01 T10261059  RH  078%=      5-min Rain = 0
KST2 141020Z 06004KT M03/M06 A3039 RMK A01 T10261058  RH  079%=      5-min Rain = 0
KST2 141021Z 06005KT M03/M06 A3039 RMK A01 T10261058  RH  079%=      5-min Rain = 0
KST2 141022Z 06005KT M03/M06 A3039 RMK A01 T10261058  RH  079%=      5-min Rain = 0
KST2 141023Z 06004KT M03/M06 A3039 RMK A01 T10261058  RH  079%=      5-min Rain = 0
KST2 141024Z 06004KT M03/M06 A3039 RMK A01 T10261058  RH  079%=      5-min Rain = 0
KST2 141025Z 07004KT M03/M06 A3039 RMK A01 T10271059  RH  078%=      5-min Rain = 0
KST2 141026Z 07004KT M03/M06 A3039 RMK A01 T10271059  RH  078%=      5-min Rain = 0
KST2 141027Z 07004KT M03/M06 A3039 RMK A01 T10271059  RH  079%=      5-min Rain = 0
KST2 141028Z 07004KT M03/M06 A3039 RMK A01 T10271059  RH  079%=      5-min Rain = 0
KST2 141029Z 06004KT M03/M06 A3039 RMK A01 T10271059  RH  079%=      5-min Rain = 0
KST2 141030Z 06004KT M03/M06 A3039 RMK A01 T10271058  RH  079%=      5-min Rain = 0
KST2 141031Z 06004KT M03/M06 A3039 RMK A01 T10271058  RH  079%=      5-min Rain = 0
KST2 141032Z 06005KT M03/M06 A3039 RMK A01 T10271059  RH  079%=      5-min Rain = 0
KST2 141033Z 06005KT M03/M06 A3039 RMK A01 T10271059  RH  078%=      5-min Rain = 0
KST2 141034Z 06005KT M03/M06 A3039 RMK A01 T10271059  RH  079%=      5-min Rain = 0
KST2 141035Z 07004KT M03/M06 A3039 RMK A01 T10271059  RH  079%=      5-min Rain = 0
KST2 141036Z 06004KT M03/M06 A3039 RMK A01 T10271059  RH  079%=      5-min Rain = 0
KST2 141037Z 06004KT M03/M06 A3039 RMK A01 T10271059  RH  079%=      5-min Rain = 0
KST2 141038Z 07004KT M03/M06 A3039 RMK A01 T10271059  RH  079%=      5-min Rain = 0
KST2 141039Z 06004KT M03/M06 A3039 RMK A01 T10271059  RH  079%=      5-min Rain = 0
KST2 141040Z 06005KT M03/M06 A3039 RMK A01 T10271059  RH  079%=      5-min Rain = 0
KST2 141041Z 06005KT M03/M06 A3039 RMK A01 T10271059  RH  079%=      5-min Rain = 0
KST2 141042Z 06006KT M03/M06 A3039 RMK A01 T10281060  RH  078%=      5-min Rain = 0
KST2 141043Z 06006KT M03/M06 A3039 RMK A01 T10271059  RH  079%=      5-min Rain = 0
KST2 141044Z 06005KT M03/M06 A3039 RMK A01 T10271059  RH  079%=      5-min Rain = 0
KST2 141045Z 06005KT M03/M06 A304 RMK A01 T10271058  RH  079%=      5-min Rain = 0
KST2 141046Z 06004KT M03/M06 A304 RMK A01 T10271058  RH  079%=      5-min Rain = 0
KST2 141047Z 06005KT M03/M06 A304 RMK A01 T10271059  RH  079%=      5-min Rain = 0
KST2 141048Z 06005KT M03/M06 A304 RMK A01 T10271059  RH  079%=      5-min Rain = 0
KST2 141049Z 06005KT M03/M06 A304 RMK A01 T10271059  RH  079%=      5-min Rain = 0
KST2 141050Z 06005KT M03/M06 A304 RMK A01 T10271059  RH  079%=      5-min Rain = 0
KST2 141051Z 05005KT M03/M06 A304 RMK A01 T10271059  RH  079%=      5-min Rain = 0
KST2 141052Z 05005KT M03/M06 A304 RMK A01 T10271058  RH  079%=      5-min Rain = 0
KST2 141053Z 05006KT M03/M06 A304 RMK A01 T10271058  RH  079%=      5-min Rain = 0
KST2 141054Z 05006KT M03/M06 A304 RMK A01 T10271058  RH  079%=      5-min Rain = 0
KST2 141055Z 05005KT M03/M06 A304 RMK A01 T10271059  RH  079%=      5-min Rain = 0
KST2 141056Z 05005KT M03/M06 A304 RMK A01 T10271059  RH  079%=      5-min Rain = 0
KST2 141057Z 06005KT M03/M06 A304 RMK A01 T10271058  RH  079%=      5-min Rain = 0
KST2 141058Z 05004KT M03/M06 A304 RMK A01 T10271058  RH  080%=      5-min Rain = 0
KST2 141059Z 06005KT M03/M06 A304 RMK A01 T10271057  RH  080%=      5-min Rain = 0
KST2 141100Z 05005KT M03/M06 A304 RMK A01 T10271057  RH  080%=      5-min Rain = 0
KST2 141101Z 05006KT M03/M06 A304 RMK A01 T10271057  RH  080%=      5-min Rain = 0
KST2 141102Z 05005KT M03/M06 A304 RMK A01 T10271057  RH  080%=      5-min Rain = 0
KST2 141103Z 05005KT M03/M06 A304 RMK A01 T10271057  RH  080%=      5-min Rain = 0
KST2 141104Z 05005KT M03/M06 A304 RMK A01 T10271056  RH  081%=      5-min Rain = 0
KST2 141105Z 04006KT M03/M06 A304 RMK A01 T10271056  RH  081%=      5-min Rain = 0
KST2 141106Z 05006KT M03/M06 A304 RMK A01 T10281056  RH  081%=      5-min Rain = 0
KST2 141107Z 04006KT M03/M06 A304 RMK A01 T10281057  RH  081%=      5-min Rain = 0
KST2 141108Z 05006KT M03/M06 A304 RMK A01 T10281057  RH  081%=      5-min Rain = 0
KST2 141109Z 05005KT M03/M06 A304 RMK A01 T10291057  RH  081%=      5-min Rain = 0
KST2 141110Z 05005KT M03/M06 A304 RMK A01 T10291057  RH  081%=      5-min Rain = 0
KST2 141111Z 05006KT M03/M06 A304 RMK A01 T10291056  RH  081%=      5-min Rain = 0
KST2 141112Z 05005KT M03/M06 A304 RMK A01 T10291057  RH  081%=      5-min Rain = 0
KST2 141113Z 04005KT M03/M06 A304 RMK A01 T10291056  RH  081%=      5-min Rain = 0
KST2 141114Z 04006KT M03/M06 A304 RMK A01 T10291056  RH  081%=      5-min Rain = 0
KST2 141115Z 04006KT M03/M06 A304 RMK A01 T10291057  RH  081%=      5-min Rain = 0
KST2 141116Z 04005KT M03/M06 A304 RMK A01 T10291057  RH  081%=      5-min Rain = 0
KST2 141117Z 04005KT M03/M06 A304 RMK A01 T10291057  RH  082%=      5-min Rain = 0
KST2 141118Z 04005KT M03/M06 A304 RMK A01 T10301057  RH  082%=      5-min Rain = 0
KST2 141119Z 04005KT M03/M06 A304 RMK A01 T10301057  RH  082%=      5-min Rain = 0
KST2 141120Z 04005KT M03/M06 A304 RMK A01 T10301056  RH  082%=      5-min Rain = 0
KST2 141121Z 05005KT M03/M06 A304 RMK A01 T10291056  RH  082%=      5-min Rain = 0
KST2 141122Z 04005KT M03/M06 A304 RMK A01 T10301056  RH  082%=      5-min Rain = 0
KST2 141123Z 04005KT M03/M06 A304 RMK A01 T10301055  RH  083%=      5-min Rain = 0
KST2 141124Z 04005KT M03/M06 A304 RMK A01 T10301055  RH  083%=      5-min Rain = 0
KST2 141125Z 04006KT M03/M06 A304 RMK A01 T10301055  RH  083%=      5-min Rain = 0
KST2 141126Z 04006KT M03/M06 A304 RMK A01 T10301056  RH  083%=      5-min Rain = 0
KST2 141127Z 04006KT M03/M06 A304 RMK A01 T10311056  RH  082%=      5-min Rain = 0
KST2 141128Z 04006KT M03/M06 A304 RMK A01 T10311057  RH  082%=      5-min Rain = 0
KST2 141129Z 04006KT M03/M06 A304 RMK A01 T10311057  RH  082%=      5-min Rain = 0
KST2 141130Z 04006KT M03/M06 A304 RMK A01 T10311057  RH  082%=      5-min Rain = 0
KST2 141131Z 04006KT M03/M06 A304 RMK A01 T10311056  RH  083%=      5-min Rain = 0
KST2 141132Z 04006KT M03/M06 A304 RMK A01 T10311056  RH  083%=      5-min Rain = 0
KST2 141133Z 04006KT M03/M06 A304 RMK A01 T10311056  RH  083%=      5-min Rain = 0
KST2 141134Z 04006KT M03/M06 A304 RMK A01 T10321057  RH  083%=      5-min Rain = 0
KST2 141135Z 04006KT M03/M06 A304 RMK A01 T10321057  RH  082%=      5-min Rain = 0
KST2 141136Z 04006KT M03/M06 A304 RMK A01 T10321057  RH  083%=      5-min Rain = 0
KST2 141137Z 04006KT M03/M06 A304 RMK A01 T10321057  RH  083%=      5-min Rain = 0
KST2 141138Z 05006KT M03/M06 A304 RMK A01 T10321057  RH  083%=      5-min Rain = 0
KST2 141139Z 05005KT M03/M06 A304 RMK A01 T10321057  RH  083%=      5-min Rain = 0
KST2 141140Z 05006KT M03/M06 A304 RMK A01 T10321057  RH  083%=      5-min Rain = 0
KST2 141141Z 05006KT M03/M06 A304 RMK A01 T10321057  RH  083%=      5-min Rain = 0
KST2 141142Z 05007KT M03/M06 A304 RMK A01 T10321057  RH  083%=      5-min Rain = 0
KST2 141143Z 04006KT M03/M06 A304 RMK A01 T10321057  RH  083%=      5-min Rain = 0
KST2 141144Z 04006KT M03/M06 A304 RMK A01 T10321057  RH  083%=      5-min Rain = 0
KST2 141145Z 04006KT M03/M06 A304 RMK A01 T10321057  RH  083%=      5-min Rain = 0
KST2 141146Z 04006KT M03/M06 A304 RMK A01 T10321057  RH  083%=      5-min Rain = 0
KST2 141147Z 04006KT M03/M06 A304 RMK A01 T10321056  RH  083%=      5-min Rain = 0
KST2 141148Z 04006KT M03/M06 A304 RMK A01 T10321056  RH  084%=      5-min Rain = 0
KST2 141149Z 05006KT M03/M06 A304 RMK A01 T10321056  RH  084%=      5-min Rain = 0
KST2 141150Z 05006KT M03/M06 A304 RMK A01 T10321056  RH  084%=      5-min Rain = 0
KST2 141151Z 05006KT M03/M06 A304 RMK A01 T10321056  RH  084%=      5-min Rain = 0
KST2 141152Z 05005KT M03/M06 A304 RMK A01 T10311055  RH  084%=      5-min Rain = 0
KST2 141153Z 06006KT M03/M06 A304 RMK A01 T10321055  RH  084%=      5-min Rain = 0
KST2 141154Z 06007KT M03/M06 A304 RMK A01 T10321055  RH  084%=      5-min Rain = 0
KST2 141155Z 06008KT M03/M06 A304 RMK A01 T10311057  RH  083%=      5-min Rain = 0
KST2 141156Z 06007KT M03/M06 A304 RMK A01 T10311058  RH  082%=      5-min Rain = 0
KST2 141157Z 06006KT M03/M06 A304 RMK A01 T10311058  RH  082%=      5-min Rain = 0
KST2 141158Z 06007KT M03/M06 A304 RMK A01 T10311057  RH  082%=      5-min Rain = 0
KST2 141159Z 05007KT M03/M06 A304 RMK A01 T10311058  RH  082%=      5-min Rain = 0
KST2 141200Z 05008KT M03/M06 A304 RMK A01 T10311058  RH  081%=      5-min Rain = 0
KST2 141201Z 06007KT M03/M06 A304 RMK A01 T10311059  RH  081%=      5-min Rain = 0
KST2 141202Z 05006KT M03/M06 A304 RMK A01 T10311058  RH  081%=      5-min Rain = 0
KST2 141203Z 06008KT M03/M06 A304 RMK A01 T10311058  RH  082%=      5-min Rain = 0
KST2 141204Z 05008KT M03/M06 A304 RMK A01 T10311058  RH  081%=      5-min Rain = 0
KST2 141205Z 05007KT M03/M06 A304 RMK A01 T10311058  RH  081%=      5-min Rain = 0
KST2 141206Z 05007KT M03/M06 A304 RMK A01 T10301058  RH  081%=      5-min Rain = 0
KST2 141207Z 05008KT M03/M06 A304 RMK A01 T10301058  RH  081%=      5-min Rain = 0
KST2 141208Z 06008KT M03/M06 A304 RMK A01 T10311059  RH  081%=      5-min Rain = 0
KST2 141209Z 06007KT M03/M06 A304 RMK A01 T10311059  RH  081%=      5-min Rain = 0
KST2 141210Z 05008KT M03/M06 A304 RMK A01 T10311059  RH  081%=      5-min Rain = 0
KST2 141211Z 05007KT M03/M06 A304 RMK A01 T10311059  RH  081%=      5-min Rain = 0
KST2 141212Z 05008KT M03/M06 A3041 RMK A01 T10311059  RH  081%=      5-min Rain = 0
KST2 141213Z 05007KT M03/M06 A3041 RMK A01 T10311060  RH  081%=      5-min Rain = 0
KST2 141214Z 05007KT M03/M06 A3041 RMK A01 T10311060  RH  081%=      5-min Rain = 0
KST2 141215Z 05006KT M03/M06 A3041 RMK A01 T10311059  RH  081%=      5-min Rain = 0
KST2 141216Z 04005KT M03/M06 A3041 RMK A01 T10311058  RH  082%=      5-min Rain = 0
KST2 141217Z 04006KT M03/M06 A3041 RMK A01 T10301057  RH  082%=      5-min Rain = 0
KST2 141218Z 04005KT M03/M06 A3041 RMK A01 T10311058  RH  082%=      5-min Rain = 0
KST2 141219Z 04005KT M03/M06 A3041 RMK A01 T10311058  RH  082%=      5-min Rain = 0
KST2 141220Z 05005KT M03/M06 A3041 RMK A01 T10321058  RH  082%=      5-min Rain = 0
KST2 141221Z 05005KT M03/M06 A3041 RMK A01 T10321057  RH  083%=      5-min Rain = 0
KST2 141222Z 05005KT M03/M06 A3041 RMK A01 T10321057  RH  083%=      5-min Rain = 0
KST2 141223Z 05006KT M03/M06 A3041 RMK A01 T10321057  RH  083%=      5-min Rain = 0
KST2 141224Z 05005KT M03/M06 A3041 RMK A01 T10321056  RH  083%=      5-min Rain = 0
KST2 141225Z 05006KT M03/M06 A3041 RMK A01 T10321056  RH  083%=      5-min Rain = 0
KST2 141226Z 05006KT M03/M06 A3041 RMK A01 T10321057  RH  083%=      5-min Rain = 0
KST2 141227Z 05004KT M03/M06 A3041 RMK A01 T10331058  RH  083%=      5-min Rain = 0
KST2 141228Z 05005KT M03/M06 A3041 RMK A01 T10321057  RH  083%=      5-min Rain = 0
KST2 141229Z 05005KT M03/M06 A3041 RMK A01 T10321057  RH  083%=      5-min Rain = 0
KST2 141230Z 05004KT M03/M06 A3041 RMK A01 T10321057  RH  083%=      5-min Rain = 0
KST2 141231Z 05006KT M03/M06 A3041 RMK A01 T10321057  RH  083%=      5-min Rain = 0
KST2 141232Z 05005KT M03/M06 A3041 RMK A01 T10321057  RH  083%=      5-min Rain = 0
KST2 141233Z 05005KT M03/M06 A3042 RMK A01 T10321057  RH  083%=      5-min Rain = 0
KST2 141234Z 05006KT M03/M06 A3042 RMK A01 T10321057  RH  083%=      5-min Rain = 0
KST2 141235Z 06006KT M03/M06 A3042 RMK A01 T10321057  RH  083%=      5-min Rain = 0
KST2 141236Z 06006KT M03/M06 A3042 RMK A01 T10321058  RH  083%=      5-min Rain = 0
KST2 141237Z 06005KT M03/M06 A3041 RMK A01 T10321058  RH  083%=      5-min Rain = 0
KST2 141238Z 05006KT M03/M06 A3041 RMK A01 T10321058  RH  082%=      5-min Rain = 0
KST2 141239Z 06006KT M03/M06 A3041 RMK A01 T10321059  RH  082%=      5-min Rain = 0
KST2 141240Z 05006KT M03/M06 A3041 RMK A01 T10321059  RH  082%=      5-min Rain = 0
KST2 141241Z 05006KT M03/M06 A3041 RMK A01 T10321060  RH  081%=      5-min Rain = 0
KST2 141242Z 06005KT M03/M06 A3041 RMK A01 T10321059  RH  082%=      5-min Rain = 0
KST2 141243Z 06006KT M03/M06 A3041 RMK A01 T10321059  RH  082%=      5-min Rain = 0
KST2 141244Z 06006KT M03/M06 A3041 RMK A01 T10321059  RH  082%=      5-min Rain = 0
KST2 141245Z 06006KT M03/M06 A3042 RMK A01 T10321059  RH  082%=      5-min Rain = 0
KST2 141246Z 07007KT M03/M06 A3042 RMK A01 T10321059  RH  082%=      5-min Rain = 0
KST2 141247Z 06006KT M03/M06 A3042 RMK A01 T10321060  RH  081%=      5-min Rain = 0
KST2 141248Z 06006KT M03/M06 A3042 RMK A01 T10321061  RH  081%=      5-min Rain = 0
KST2 141249Z 06006KT M03/M06 A3042 RMK A01 T10331061  RH  081%=      5-min Rain = 0
KST2 141250Z 06006KT M03/M06 A3042 RMK A01 T10331061  RH  081%=      5-min Rain = 0
KST2 141251Z 06005KT M03/M06 A3042 RMK A01 T10331061  RH  081%=      5-min Rain = 0
KST2 141252Z 06006KT M03/M06 A3042 RMK A01 T10331059  RH  082%=      5-min Rain = 0
KST2 141253Z 06007KT M03/M06 A3042 RMK A01 T10321059  RH  082%=      5-min Rain = 0
KST2 141254Z 06007KT M03/M06 A3042 RMK A01 T10321060  RH  081%=      5-min Rain = 0
KST2 141255Z 06006KT M03/M06 A3042 RMK A01 T10331061  RH  081%=      5-min Rain = 0
KST2 141256Z 06005KT M03/M06 A3042 RMK A01 T10331061  RH  081%=      5-min Rain = 0
KST2 141257Z 06005KT M03/M06 A3042 RMK A01 T10331061  RH  081%=      5-min Rain = 0
KST2 141258Z 06005KT M03/M06 A3042 RMK A01 T10331061  RH  081%=      5-min Rain = 0
KST2 141259Z 07004KT M03/M06 A3042 RMK A01 T10331061  RH  081%=      5-min Rain = 0
KST2 141300Z 06004KT M03/M06 A3042 RMK A01 T10331060  RH  082%=      5-min Rain = 0
KST2 141301Z 06005KT M03/M06 A3042 RMK A01 T10331060  RH  082%=      5-min Rain = 0
KST2 141302Z 06006KT M03/M06 A3042 RMK A01 T10331060  RH  082%=      5-min Rain = 0
KST2 141303Z 06005KT M03/M06 A3042 RMK A01 T10331060  RH  082%=      5-min Rain = 0
KST2 141304Z 05006KT M03/M06 A3042 RMK A01 T10331061  RH  081%=      5-min Rain = 0
KST2 141305Z 05006KT M03/M06 A3042 RMK A01 T10331061  RH  081%=      5-min Rain = 0
KST2 141306Z 06006KT M03/M06 A3042 RMK A01 T10331061  RH  082%=      5-min Rain = 0
KST2 141307Z 06005KT M03/M06 A3042 RMK A01 T10341061  RH  081%=      5-min Rain = 0
KST2 141308Z 06005KT M03/M06 A3042 RMK A01 T10341060  RH  082%=      5-min Rain = 0
KST2 141309Z 06005KT M03/M06 A3042 RMK A01 T10341060  RH  082%=      5-min Rain = 0
KST2 141310Z 06005KT M03/M06 A3042 RMK A01 T10341060  RH  082%=      5-min Rain = 0
KST2 141311Z 06005KT M03/M06 A3042 RMK A01 T10341060  RH  082%=      5-min Rain = 0
KST2 141312Z 06005KT M03/M06 A3042 RMK A01 T10341060  RH  082%=      5-min Rain = 0
KST2 141313Z 06005KT M03/M06 A3042 RMK A01 T10341060  RH  082%=      5-min Rain = 0
KST2 141314Z 05006KT M03/M06 A3042 RMK A01 T10331059  RH  083%=      5-min Rain = 0
KST2 141315Z 05006KT M03/M06 A3042 RMK A01 T10331059  RH  083%=      5-min Rain = 0
KST2 141316Z 05005KT M03/M06 A3042 RMK A01 T10341059  RH  082%=      5-min Rain = 0
KST2 141317Z 05006KT M03/M06 A3042 RMK A01 T10341060  RH  082%=      5-min Rain = 0
KST2 141318Z 06005KT M03/M06 A3042 RMK A01 T10341061  RH  082%=      5-min Rain = 0
KST2 141319Z 07005KT M04/M06 A3042 RMK A01 T10351060  RH  082%=      5-min Rain = 0
KST2 141320Z 06005KT M03/M06 A3042 RMK A01 T10341060  RH  082%=      5-min Rain = 0
KST2 141321Z 06005KT M04/M06 A3042 RMK A01 T10351062  RH  082%=      5-min Rain = 0
KST2 141322Z 06005KT M04/M06 A3042 RMK A01 T10351062  RH  082%=      5-min Rain = 0
KST2 141323Z 07004KT M04/M06 A3042 RMK A01 T10351061  RH  082%=      5-min Rain = 0
KST2 141324Z 06005KT M04/M06 A3042 RMK A01 T10351060  RH  082%=      5-min Rain = 0
KST2 141325Z 06005KT M03/M06 A3042 RMK A01 T10341060  RH  082%=      5-min Rain = 0
KST2 141326Z 06005KT M03/M06 A3042 RMK A01 T10341060  RH  082%=      5-min Rain = 0
KST2 141327Z 06005KT M04/M06 A3042 RMK A01 T10351060  RH  083%=      5-min Rain = 0
KST2 141328Z 06006KT M03/M06 A3042 RMK A01 T10341060  RH  082%=      5-min Rain = 0
KST2 141329Z 06005KT M03/M06 A3042 RMK A01 T10341061  RH  082%=      5-min Rain = 0
KST2 141330Z 07005KT M03/M06 A3042 RMK A01 T10341060  RH  082%=      5-min Rain = 0
KST2 141331Z 07005KT M03/M06 A3042 RMK A01 T10341061  RH  082%=      5-min Rain = 0
KST2 141332Z 07005KT M03/M06 A3042 RMK A01 T10341061  RH  082%=      5-min Rain = 0
KST2 141333Z 07005KT M03/M06 A3042 RMK A01 T10341061  RH  082%=      5-min Rain = 0
KST2 141334Z 08004KT M03/M06 A3042 RMK A01 T10341061  RH  082%=      5-min Rain = 0
KST2 141335Z 07004KT M03/M06 A3042 RMK A01 T10341060  RH  082%=      5-min Rain = 0
KST2 141336Z 07004KT M03/M06 A3042 RMK A01 T10331059  RH  082%=      5-min Rain = 0
KST2 141337Z 07005KT M03/M06 A3042 RMK A01 T10331059  RH  082%=      5-min Rain = 0
KST2 141338Z 07005KT M03/M06 A3042 RMK A01 T10331059  RH  082%=      5-min Rain = 0
KST2 141339Z 07005KT M03/M06 A3042 RMK A01 T10331060  RH  082%=      5-min Rain = 0
KST2 141340Z 08005KT M03/M06 A3042 RMK A01 T10331060  RH  082%=      5-min Rain = 0
KST2 141341Z 07005KT M03/M06 A3042 RMK A01 T10331061  RH  081%=      5-min Rain = 0
KST2 141342Z 07005KT M03/M06 A3042 RMK A01 T10341062  RH  081%=      5-min Rain = 0
KST2 141343Z 08005KT M03/M06 A3042 RMK A01 T10341061  RH  081%=      5-min Rain = 0
KST2 141344Z 08005KT M03/M06 A3042 RMK A01 T10341061  RH  081%=      5-min Rain = 0
KST2 141345Z 08006KT M03/M06 A3042 RMK A01 T10341061  RH  081%=      5-min Rain = 0
KST2 141346Z 08005KT M03/M06 A3042 RMK A01 T10341061  RH  081%=      5-min Rain = 0
KST2 141347Z 07005KT M03/M06 A3042 RMK A01 T10341061  RH  082%=      5-min Rain = 0
KST2 141348Z 08005KT M03/M06 A3042 RMK A01 T10341060  RH  082%=      5-min Rain = 0
KST2 141349Z 08004KT M03/M06 A3042 RMK A01 T10331061  RH  082%=      5-min Rain = 0
KST2 141350Z 07005KT M03/M06 A3042 RMK A01 T10341061  RH  082%=      5-min Rain = 0
KST2 141351Z 08004KT M03/M06 A3042 RMK A01 T10341062  RH  081%=      5-min Rain = 0
KST2 141352Z 09004KT M03/M06 A3043 RMK A01 T10341061  RH  081%=      5-min Rain = 0
KST2 141353Z 08004KT M03/M06 A3043 RMK A01 T10341061  RH  081%=      5-min Rain = 0
KST2 141354Z 07005KT M03/M06 A3043 RMK A01 T10331061  RH  081%=      5-min Rain = 0
KST2 141355Z 08004KT M03/M06 A3043 RMK A01 T10331060  RH  082%=      5-min Rain = 0
KST2 141356Z 07005KT M03/M06 A3043 RMK A01 T10321058  RH  082%=      5-min Rain = 0
KST2 141357Z 07005KT M03/M06 A3043 RMK A01 T10321058  RH  082%=      5-min Rain = 0
KST2 141358Z 08005KT M03/M06 A3043 RMK A01 T10321060  RH  081%=      5-min Rain = 0
KST2 141359Z 07005KT M03/M06 A3043 RMK A01 T10321060  RH  081%=      5-min Rain = 0
KST2 141400Z 07005KT M03/M06 A3043 RMK A01 T10321060  RH  081%=      5-min Rain = 0
KST2 141401Z 07005KT M03/M06 A3043 RMK A01 T10321061  RH  081%=      5-min Rain = 0
KST2 141402Z 08005KT M03/M06 A3043 RMK A01 T10331062  RH  080%=      5-min Rain = 0
KST2 141403Z 08004KT M03/M06 A3043 RMK A01 T10331061  RH  081%=      5-min Rain = 0
KST2 141404Z 08005KT M03/M06 A3043 RMK A01 T10321060  RH  082%=      5-min Rain = 0
KST2 141405Z 08004KT M03/M06 A3043 RMK A01 T10321060  RH  081%=      5-min Rain = 0
KST2 141406Z 08004KT M03/M06 A3043 RMK A01 T10321060  RH  081%=      5-min Rain = 0
KST2 141407Z 08005KT M03/M06 A3043 RMK A01 T10321060  RH  081%=      5-min Rain = 0
KST2 141408Z 07004KT M03/M06 A3043 RMK A01 T10321060  RH  081%=      5-min Rain = 0
KST2 141409Z 07004KT M03/M06 A3043 RMK A01 T10321060  RH  081%=      5-min Rain = 0
KST2 141410Z 07005KT M03/M06 A3043 RMK A01 T10321059  RH  081%=      5-min Rain = 0
KST2 141411Z 08004KT M03/M06 A3043 RMK A01 T10321060  RH  081%=      5-min Rain = 0
KST2 141412Z 07004KT M03/M06 A3043 RMK A01 T10321059  RH  082%=      5-min Rain = 0
KST2 141413Z 07004KT M03/M06 A3043 RMK A01 T10311057  RH  082%=      5-min Rain = 0
KST2 141414Z 08005KT M03/M06 A3043 RMK A01 T10301058  RH  081%=      5-min Rain = 0
KST2 141415Z 08005KT M03/M06 A3043 RMK A01 T10301059  RH  081%=      5-min Rain = 0
KST2 141416Z 08004KT M03/M06 A3043 RMK A01 T10311060  RH  080%=      5-min Rain = 0
KST2 141417Z 07005KT M03/M06 A3043 RMK A01 T10321061  RH  080%=      5-min Rain = 0
KST2 141418Z 08006KT M03/M06 A3043 RMK A01 T10311060  RH  081%=      5-min Rain = 0
KST2 141419Z 08006KT M03/M06 A3043 RMK A01 T10311061  RH  080%=      5-min Rain = 0
KST2 141420Z 08005KT M03/M06 A3043 RMK A01 T10311061  RH  080%=      5-min Rain = 0
KST2 141421Z 07004KT M03/M06 A3043 RMK A01 T10311061  RH  080%=      5-min Rain = 0
KST2 141422Z 07005KT M03/M06 A3043 RMK A01 T10311060  RH  081%=      5-min Rain = 0
KST2 141423Z 07005KT M03/M06 A3043 RMK A01 T10311060  RH  080%=      5-min Rain = 0
KST2 141424Z 08005KT M03/M06 A3043 RMK A01 T10311059  RH  081%=      5-min Rain = 0
KST2 141425Z 08005KT M03/M06 A3043 RMK A01 T10311059  RH  081%=      5-min Rain = 0
KST2 141426Z 07005KT M03/M06 A3044 RMK A01 T10301059  RH  080%=      5-min Rain = 0
KST2 141427Z 08005KT M03/M06 A3044 RMK A01 T10301059  RH  081%=      5-min Rain = 0
KST2 141428Z 08004KT M03/M06 A3044 RMK A01 T10301058  RH  081%=      5-min Rain = 0
KST2 141429Z 08006KT M03/M06 A3044 RMK A01 T10291057  RH  081%=      5-min Rain = 0
KST2 141430Z 09005KT M03/M06 A3044 RMK A01 T10291059  RH  080%=      5-min Rain = 0
KST2 141431Z 09005KT M03/M06 A3044 RMK A01 T10291058  RH  081%=      5-min Rain = 0
KST2 141432Z 09005KT M03/M06 A3044 RMK A01 T10291057  RH  081%=      5-min Rain = 0
KST2 141433Z 08005KT M03/M06 A3044 RMK A01 T10291058  RH  080%=      5-min Rain = 0
KST2 141434Z 08006KT M03/M06 A3044 RMK A01 T10291059  RH  080%=      5-min Rain = 0
KST2 141435Z 08006KT M03/M06 A3044 RMK A01 T10291059  RH  080%=      5-min Rain = 0
KST2 141436Z 09005KT M03/M06 A3044 RMK A01 T10291059  RH  080%=      5-min Rain = 0
KST2 141437Z 08005KT M03/M06 A3044 RMK A01 T10291058  RH  080%=      5-min Rain = 0
KST2 141438Z 08005KT M03/M06 A3044 RMK A01 T10291058  RH  080%=      5-min Rain = 0
KST2 141439Z 09004KT M03/M06 A3044 RMK A01 T10281058  RH  080%=      5-min Rain = 0
KST2 141440Z 09005KT M03/M06 A3044 RMK A01 T10281057  RH  081%=      5-min Rain = 0
KST2 141441Z 09005KT M03/M06 A3044 RMK A01 T10281058  RH  080%=      5-min Rain = 0
KST2 141442Z 09005KT M03/M06 A3044 RMK A01 T10271056  RH  081%=      5-min Rain = 0
KST2 141443Z 10006KT M03/M06 A3044 RMK A01 T10261055  RH  081%=      5-min Rain = 0
KST2 141444Z 11005KT M03/M06 A3044 RMK A01 T10261056  RH  080%=      5-min Rain = 0
KST2 141445Z 10005KT M03/M06 A3044 RMK A01 T10261056  RH  080%=      5-min Rain = 0
KST2 141446Z 10005KT M03/M06 A3044 RMK A01 T10251056  RH  079%=      5-min Rain = 0
KST2 141447Z 10006KT M03/M06 A3044 RMK A01 T10251057  RH  079%=      5-min Rain = 0
KST2 141448Z 10006KT M03/M06 A3044 RMK A01 T10251056  RH  079%=      5-min Rain = 0
KST2 141449Z 09005KT M03/M06 A3044 RMK A01 T10251056  RH  080%=      5-min Rain = 0
KST2 141450Z 09006KT M03/M06 A3044 RMK A01 T10251056  RH  080%=      5-min Rain = 0
KST2 141451Z 09005KT M03/M06 A3044 RMK A01 T10251056  RH  079%=      5-min Rain = 0
KST2 141452Z 08005KT M03/M06 A3044 RMK A01 T10251056  RH  079%=      5-min Rain = 0
KST2 141453Z 08005KT M03/M06 A3044 RMK A01 T10251055  RH  079%=      5-min Rain = 0
KST2 141454Z 08004KT M02/M06 A3044 RMK A01 T10241056  RH  079%=      5-min Rain = 0
KST2 141455Z 08004KT M02/M06 A3044 RMK A01 T10241055  RH  079%=      5-min Rain = 0
KST2 141456Z 09005KT M02/M05 A3044 RMK A01 T10231053  RH  080%=      5-min Rain = 0
KST2 141457Z 09005KT M02/M05 A3044 RMK A01 T10231053  RH  079%=      5-min Rain = 0
KST2 141458Z 09005KT M02/M05 A3044 RMK A01 T10221054  RH  079%=      5-min Rain = 0
KST2 141459Z 09005KT M02/M05 A3044 RMK A01 T10221054  RH  079%=      5-min Rain = 0
KST2 141500Z 09005KT M02/M05 A3044 RMK A01 T10221054  RH  079%=      5-min Rain = 0
KST2 141501Z 09006KT M02/M05 A3045 RMK A01 T10221054  RH  079%=      5-min Rain = 0
KST2 141502Z 09006KT M02/M05 A3044 RMK A01 T10211053  RH  079%=      5-min Rain = 0
KST2 141503Z 09005KT M02/M05 A3044 RMK A01 T10211054  RH  078%=      5-min Rain = 0
KST2 141504Z 09005KT M02/M05 A3044 RMK A01 T10211054  RH  078%=      5-min Rain = 0
KST2 141505Z 09006KT M02/M05 A3044 RMK A01 T10211054  RH  078%=      5-min Rain = 0
KST2 141506Z 10005KT M02/M05 A3044 RMK A01 T10201054  RH  078%=      5-min Rain = 0
KST2 141507Z 08005KT M02/M05 A3044 RMK A01 T10201054  RH  078%=      5-min Rain = 0
KST2 141508Z 09005KT M02/M05 A3044 RMK A01 T10201053  RH  078%=      5-min Rain = 0
KST2 141509Z 10005KT M02/M05 A3044 RMK A01 T10191052  RH  078%=      5-min Rain = 0
KST2 141510Z 09005KT M02/M05 A3044 RMK A01 T10181050  RH  079%=      5-min Rain = 0
KST2 141511Z 09005KT M02/M05 A3044 RMK A01 T10171048  RH  080%=      5-min Rain = 0
KST2 141512Z 09005KT M02/M05 A3044 RMK A01 T10161049  RH  078%=      5-min Rain = 0
KST2 141513Z 09005KT M02/M05 A3044 RMK A01 T10161050  RH  078%=      5-min Rain = 0
KST2 141514Z 09007KT M02/M05 A3044 RMK A01 T10161050  RH  078%=      5-min Rain = 0
KST2 141515Z 09006KT M02/M05 A3044 RMK A01 T10161051  RH  077%=      5-min Rain = 0
KST2 141516Z 10006KT M02/M05 A3044 RMK A01 T10161051  RH  077%=      5-min Rain = 0
KST2 141517Z 10005KT M02/M05 A3044 RMK A01 T10161051  RH  077%=      5-min Rain = 0
KST2 141518Z 09006KT M02/M05 A3044 RMK A01 T10161051  RH  077%=      5-min Rain = 0
KST2 141519Z 09005KT M02/M05 A3044 RMK A01 T10151051  RH  077%=      5-min Rain = 0
KST2 141520Z 10006KT M02/M05 A3044 RMK A01 T10151051  RH  077%=      5-min Rain = 0
KST2 141521Z 10006KT M02/M05 A3044 RMK A01 T10151050  RH  077%=      5-min Rain = 0
KST2 141522Z 10006KT M02/M05 A3044 RMK A01 T10151051  RH  076%=      5-min Rain = 0
KST2 141523Z 09006KT M02/M05 A3044 RMK A01 T10151052  RH  076%=      5-min Rain = 0
KST2 141524Z 09005KT M02/M05 A3044 RMK A01 T10151052  RH  076%=      5-min Rain = 0
KST2 141525Z 09005KT M02/M05 A3044 RMK A01 T10151049  RH  077%=      5-min Rain = 0
KST2 141526Z 09005KT M01/M05 A3044 RMK A01 T10141049  RH  077%=      5-min Rain = 0
KST2 141527Z 08005KT M01/M05 A3044 RMK A01 T10141051  RH  076%=      5-min Rain = 0
KST2 141528Z 08007KT M01/M05 A3044 RMK A01 T10141051  RH  076%=      5-min Rain = 0
KST2 141529Z 09006KT M01/M05 A3044 RMK A01 T10141051  RH  076%=      5-min Rain = 0
KST2 141530Z 10005KT M01/M05 A3044 RMK A01 T10141051  RH  076%=      5-min Rain = 0
KST2 141531Z 09005KT M01/M05 A3044 RMK A01 T10141049  RH  077%=      5-min Rain = 0
KST2 141532Z 09005KT M01/M05 A3044 RMK A01 T10131048  RH  077%=      5-min Rain = 0
KST2 141533Z 08005KT M01/M05 A3044 RMK A01 T10131050  RH  076%=      5-min Rain = 0
KST2 141534Z 09006KT M01/M05 A3044 RMK A01 T10121048  RH  077%=      5-min Rain = 0
KST2 141535Z 09005KT M01/M05 A3044 RMK A01 T10121049  RH  076%=      5-min Rain = 0
KST2 141536Z 08005KT M01/M05 A3044 RMK A01 T10121049  RH  076%=      5-min Rain = 0
KST2 141537Z 08005KT M01/M05 A3044 RMK A01 T10121049  RH  076%=      5-min Rain = 0
KST2 141538Z 09005KT M01/M05 A3044 RMK A01 T10121049  RH  076%=      5-min Rain = 0
KST2 141539Z 09005KT M01/M05 A3044 RMK A01 T10121049  RH  076%=      5-min Rain = 0
KST2 141540Z 08005KT M01/M05 A3044 RMK A01 T10121050  RH  076%=      5-min Rain = 0
KST2 141541Z 09006KT M01/M05 A3044 RMK A01 T10111048  RH  076%=      5-min Rain = 0
KST2 141542Z 08004KT M01/M05 A3044 RMK A01 T10111050  RH  075%=      5-min Rain = 0
KST2 141543Z 09005KT M01/M05 A3045 RMK A01 T10111049  RH  075%=      5-min Rain = 0
KST2 141544Z 10004KT M01/M05 A3045 RMK A01 T10111048  RH  076%=      5-min Rain = 0
KST2 141545Z 11004KT M01/M05 A3045 RMK A01 T10101048  RH  075%=      5-min Rain = 0
KST2 141546Z 10004KT M01/M05 A3045 RMK A01 T10101048  RH  075%=      5-min Rain = 0
KST2 141547Z 09003KT M01/M05 A3045 RMK A01 T10101048  RH  075%=      5-min Rain = 0
KST2 141548Z 07004KT M01/M05 A3045 RMK A01 T10091046  RH  076%=      5-min Rain = 0
KST2 141549Z 07005KT M01/M05 A3045 RMK A01 T10081047  RH  075%=      5-min Rain = 0
KST2 141550Z 06004KT M01/M05 A3045 RMK A01 T10081047  RH  075%=      5-min Rain = 0
KST2 141551Z 08003KT M01/M05 A3045 RMK A01 T10081046  RH  076%=      5-min Rain = 0
KST2 141552Z 09004KT M01/M05 A3045 RMK A01 T10071045  RH  076%=      5-min Rain = 0
KST2 141553Z 10004KT M01/M05 A3045 RMK A01 T10071046  RH  075%=      5-min Rain = 0
KST2 141554Z 10004KT M01/M05 A3045 RMK A01 T10071045  RH  075%=      5-min Rain = 0
KST2 141555Z 09002KT M01/M05 A3045 RMK A01 T10071047  RH  074%=      5-min Rain = 0
KST2 141556Z 09004KT M01/M05 A3045 RMK A01 T10071047  RH  075%=      5-min Rain = 0
KST2 141557Z 09005KT M01/M05 A3045 RMK A01 T10071047  RH  074%=      5-min Rain = 0
KST2 141558Z 08004KT M01/M05 A3045 RMK A01 T10061047  RH  074%=      5-min Rain = 0
KST2 141559Z 08004KT M01/M05 A3045 RMK A01 T10071046  RH  075%=      5-min Rain = 0
KST2 141600Z 08003KT M01/M05 A3045 RMK A01 T10061045  RH  075%=      5-min Rain = 0
KST2 141601Z 08003KT M01/M05 A3045 RMK A01 T10061046  RH  075%=      5-min Rain = 0
KST2 141602Z 10003KT M01/M04 A3045 RMK A01 T10061043  RH  075%=      5-min Rain = 0
KST2 141603Z 11003KT M01/M04 A3045 RMK A01 T10051044  RH  075%=      5-min Rain = 0
KST2 141604Z 12004KT M00/M04 A3044 RMK A01 T10041042  RH  075%=      5-min Rain = 0
KST2 141605Z 12004KT M00/M04 A3044 RMK A01 T10031042  RH  075%=      5-min Rain = 0
KST2 141606Z 13003KT M00/M04 A3044 RMK A01 T10031041  RH  075%=      5-min Rain = 0
KST2 141607Z 12004KT M00/M04 A3044 RMK A01 T10021042  RH  074%=      5-min Rain = 0
KST2 141608Z 13005KT M00/M04 A3044 RMK A01 T10011040  RH  075%=      5-min Rain = 0
KST2 141609Z 12005KT 00/04 A3044 RMK A01 T00-00-40  RH  075%=      5-min Rain = 0
KST2 141610Z 13006KT 00/04 A3044 RMK A01 T00-00-42  RH  074%=      5-min Rain = 0
KST2 141611Z 14006KT M00/M04 A3044 RMK A01 T10011042  RH  074%=      5-min Rain = 0
KST2 141612Z 14005KT M00/M04 A3044 RMK A01 T10011042  RH  074%=      5-min Rain = 0
KST2 141613Z 15006KT 00/04 A3044 RMK A01 T00-00-41  RH  074%=      5-min Rain = 0
KST2 141614Z 14005KT 00/04 A3044 RMK A01 T00-00-41  RH  074%=      5-min Rain = 0
KST2 141615Z 14004KT 00/04 A3044 RMK A01 T00000-41  RH  074%=      5-min Rain = 0
KST2 141616Z 15004KT 00/04 A3044 RMK A01 T00000-41  RH  074%=      5-min Rain = 0
KST2 141617Z 12004KT 00/04 A3044 RMK A01 T00000-41  RH  074%=      5-min Rain = 0
KST2 141618Z 12004KT 00/04 A3044 RMK A01 T00000-40  RH  074%=      5-min Rain = 0
KST2 141619Z 13004KT 00/M04 A3044 RMK A01 T00011041  RH  073%=      5-min Rain = 0
KST2 141620Z 14005KT 00/M04 A3044 RMK A01 T00011042  RH  073%=      5-min Rain = 0
KST2 141621Z 13005KT 00/M04 A3044 RMK A01 T00011041  RH  073%=      5-min Rain = 0
KST2 141622Z 13006KT 00/M04 A3044 RMK A01 T00011042  RH  073%=      5-min Rain = 0
KST2 141623Z 12006KT 00/M04 A3044 RMK A01 T00011042  RH  073%=      5-min Rain = 0
KST2 141624Z 13005KT 00/M04 A3044 RMK A01 T00011042  RH  073%=      5-min Rain = 0
KST2 141625Z 13004KT 00/M04 A3044 RMK A01 T00011042  RH  073%=      5-min Rain = 0
KST2 141626Z 14004KT 00/M04 A3044 RMK A01 T00011042  RH  073%=      5-min Rain = 0
KST2 141627Z 12005KT 00/M04 A3044 RMK A01 T00011039  RH  074%=      5-min Rain = 0
KST2 141628Z 12004KT 00/M04 A3044 RMK A01 T00021038  RH  074%=      5-min Rain = 0
KST2 141629Z 12005KT 00/M04 A3044 RMK A01 T00031038  RH  074%=      5-min Rain = 0
KST2 141630Z 14005KT 00/M04 A3044 RMK A01 T00031038  RH  074%=      5-min Rain = 0
KST2 141631Z 13005KT 00/M04 A3044 RMK A01 T00031038  RH  074%=      5-min Rain = 0
KST2 141632Z 13005KT 00/M04 A3044 RMK A01 T00041038  RH  074%=      5-min Rain = 0
KST2 141633Z 13006KT 00/M04 A3044 RMK A01 T00031038  RH  074%=      5-min Rain = 0
KST2 141634Z 13006KT 00/M04 A3044 RMK A01 T00041038  RH  074%=      5-min Rain = 0
KST2 141635Z 14005KT 00/M04 A3043 RMK A01 T00041038  RH  074%=      5-min Rain = 0
KST2 141636Z 14005KT 00/M04 A3043 RMK A01 T00041038  RH  073%=      5-min Rain = 0
KST2 141637Z 15004KT 00/M04 A3043 RMK A01 T00041037  RH  074%=      5-min Rain = 0
KST2 141638Z 14004KT 00/M04 A3043 RMK A01 T00041039  RH  073%=      5-min Rain = 0
KST2 141639Z 16004KT 01/M04 A3043 RMK A01 T00051038  RH  073%=      5-min Rain = 0
KST2 141640Z 16004KT 01/M04 A3043 RMK A01 T00051038  RH  073%=      5-min Rain = 0
KST2 141641Z 15003KT 01/M04 A3043 RMK A01 T00051039  RH  072%=      5-min Rain = 0
KST2 141642Z 16003KT 01/M04 A3043 RMK A01 T00061038  RH  072%=      5-min Rain = 0
KST2 141643Z 18004KT 01/M04 A3043 RMK A01 T00071036  RH  073%=      5-min Rain = 0
KST2 141644Z 18005KT 01/M04 A3043 RMK A01 T00081035  RH  073%=      5-min Rain = 0
KST2 141645Z 18003KT 01/M04 A3043 RMK A01 T00081036  RH  073%=      5-min Rain = 0
KST2 141646Z 16005KT 01/M04 A3043 RMK A01 T00081036  RH  073%=      5-min Rain = 0
KST2 141647Z 16006KT 01/M03 A3043 RMK A01 T00081034  RH  074%=      5-min Rain = 0
KST2 141648Z 14006KT 01/M03 A3043 RMK A01 T00101030  RH  075%=      5-min Rain = 0
KST2 141649Z 14008KT 01/M03 A3043 RMK A01 T00111031  RH  074%=      5-min Rain = 0
KST2 141650Z 16007KT 01/M03 A3043 RMK A01 T00121031  RH  073%=      5-min Rain = 0
KST2 141651Z 16007KT 01/M03 A3043 RMK A01 T00121030  RH  073%=      5-min Rain = 0
KST2 141652Z 16008KT 01/M03 A3043 RMK A01 T00141027  RH  074%=      5-min Rain = 0
KST2 141653Z 16008KT 01/M03 A3043 RMK A01 T00141028  RH  073%=      5-min Rain = 0
KST2 141654Z 16007KT 01/M03 A3043 RMK A01 T00141029  RH  073%=      5-min Rain = 0
KST2 141655Z 15006KT 02/M03 A3043 RMK A01 T00151030  RH  072%=      5-min Rain = 0
KST2 141656Z 16008KT 02/M03 A3043 RMK A01 T00151029  RH  072%=      5-min Rain = 0
KST2 141657Z 15008KT 02/M03 A3043 RMK A01 T00151028  RH  073%=      5-min Rain = 0
KST2 141658Z 15007KT 02/M03 A3043 RMK A01 T00161029  RH  072%=      5-min Rain = 0
KST2 141659Z 14005KT 02/M03 A3043 RMK A01 T00161030  RH  072%=      5-min Rain = 0
KST2 141700Z 15006KT 02/M03 A3043 RMK A01 T00161029  RH  072%=      5-min Rain = 0
KST2 141701Z 14006KT 02/M03 A3043 RMK A01 T00161028  RH  072%=      5-min Rain = 0
KST2 141702Z 16006KT 02/M03 A3043 RMK A01 T00171027  RH  072%=      5-min Rain = 0
KST2 141703Z 17006KT 02/M03 A3043 RMK A01 T00181025  RH  073%=      5-min Rain = 0
KST2 141704Z 18005KT 02/M03 A3043 RMK A01 T00181026  RH  072%=      5-min Rain = 0
KST2 141705Z 17004KT 02/M03 A3042 RMK A01 T00181028  RH  071%=      5-min Rain = 0
KST2 141706Z 16005KT 02/M03 A3042 RMK A01 T00181027  RH  072%=      5-min Rain = 0
KST2 141707Z 15004KT 02/M03 A3042 RMK A01 T00181029  RH  071%=      5-min Rain = 0
KST2 141708Z 14006KT 02/M03 A3042 RMK A01 T00191027  RH  072%=      5-min Rain = 0
KST2 141709Z 15005KT 02/M03 A3042 RMK A01 T00201026  RH  071%=      5-min Rain = 0
KST2 141710Z 15004KT 02/M03 A3042 RMK A01 T00201026  RH  072%=      5-min Rain = 0
KST2 141711Z 16006KT 02/M02 A3042 RMK A01 T00221024  RH  072%=      5-min Rain = 0
KST2 141712Z 16005KT 02/M03 A3042 RMK A01 T00221027  RH  070%=      5-min Rain = 0
KST2 141713Z 15005KT 02/M03 A3042 RMK A01 T00221025  RH  071%=      5-min Rain = 0
KST2 141714Z 15004KT 02/M03 A3042 RMK A01 T00221025  RH  071%=      5-min Rain = 0
KST2 141715Z 19003KT 02/M03 A3042 RMK A01 T00221027  RH  070%=      5-min Rain = 0
KST2 141716Z 19003KT 02/M03 A3042 RMK A01 T00221027  RH  070%=      5-min Rain = 0
KST2 141717Z 17003KT 02/M03 A3042 RMK A01 T00221025  RH  071%=      5-min Rain = 0
KST2 141718Z 20004KT 02/M02 A3042 RMK A01 T00231022  RH  072%=      5-min Rain = 0
KST2 141719Z 18004KT 02/M02 A3042 RMK A01 T00241023  RH  071%=      5-min Rain = 0
KST2 141720Z 18004KT 02/M02 A3042 RMK A01 T00241024  RH  071%=      5-min Rain = 0
KST2 141721Z 18004KT 03/M02 A3042 RMK A01 T00251022  RH  071%=      5-min Rain = 0
KST2 141722Z 17002KT 03/M02 A3042 RMK A01 T00261021  RH  071%=      5-min Rain = 0
KST2 141723Z 19003KT 03/M02 A3042 RMK A01 T00261021  RH  071%=      5-min Rain = 0
KST2 141724Z 19004KT 03/M02 A3042 RMK A01 T00271021  RH  071%=      5-min Rain = 0
KST2 141725Z 18006KT 03/M02 A3042 RMK A01 T00281021  RH  070%=      5-min Rain = 0
KST2 141726Z 16004KT 03/M02 A3042 RMK A01 T00281022  RH  070%=      5-min Rain = 0
KST2 141727Z 18006KT 03/M02 A3042 RMK A01 T00281019  RH  071%=      5-min Rain = 0
KST2 141728Z 17006KT 03/M02 A3042 RMK A01 T00301017  RH  071%=      5-min Rain = 0
KST2 141729Z 17007KT 03/M02 A3042 RMK A01 T00301019  RH  070%=      5-min Rain = 0
KST2 141730Z 16005KT 03/M02 A3042 RMK A01 T00291023  RH  069%=      5-min Rain = 0
KST2 141731Z 18004KT 03/M02 A3042 RMK A01 T00281023  RH  069%=      5-min Rain = 0
KST2 141732Z 18003KT 03/M02 A3042 RMK A01 T00281024  RH  069%=      5-min Rain = 0
KST2 141733Z 16005KT 03/M02 A3042 RMK A01 T00281022  RH  069%=      5-min Rain = 0
KST2 141734Z 17004KT 03/M02 A3042 RMK A01 T00291022  RH  069%=      5-min Rain = 0
KST2 141735Z 15002KT 03/M02 A3042 RMK A01 T00301019  RH  070%=      5-min Rain = 0
KST2 141736Z 16002KT 03/M02 A3042 RMK A01 T00311018  RH  070%=      5-min Rain = 0
KST2 141737Z 17002KT 03/M02 A3042 RMK A01 T00331017  RH  070%=      5-min Rain = 0
KST2 141738Z 14005KT 03/M02 A3042 RMK A01 T00341018  RH  069%=      5-min Rain = 0
KST2 141739Z 14004KT 03/M02 A3042 RMK A01 T00341019  RH  068%=      5-min Rain = 0
KST2 141740Z 16005KT 03/M02 A3042 RMK A01 T00341017  RH  069%=      5-min Rain = 0
KST2 141741Z 14004KT 03/M02 A3042 RMK A01 T00341018  RH  069%=      5-min Rain = 0
KST2 141742Z 12004KT 03/M02 A3042 RMK A01 T00341018  RH  069%=      5-min Rain = 0
KST2 141743Z 16004KT 03/M02 A3041 RMK A01 T00341016  RH  069%=      5-min Rain = 0
KST2 141744Z 18005KT 04/M02 A3041 RMK A01 T00351015  RH  070%=      5-min Rain = 0
KST2 141745Z 17004KT 03/M02 A3041 RMK A01 T00341020  RH  068%=      5-min Rain = 0
KST2 141746Z 17003KT 03/M02 A3041 RMK A01 T00331020  RH  068%=      5-min Rain = 0
KST2 141747Z 17002KT 03/M02 A3041 RMK A01 T00331021  RH  068%=      5-min Rain = 0
KST2 141748Z 19002KT 03/M02 A3041 RMK A01 T00331020  RH  069%=      5-min Rain = 0
KST2 141749Z 17001KT 03/M02 A3041 RMK A01 T00331018  RH  069%=      5-min Rain = 0
KST2 141750Z 14003KT 03/M02 A3041 RMK A01 T00341017  RH  069%=      5-min Rain = 0
KST2 141751Z 14001KT 04/M02 A3041 RMK A01 T00351019  RH  068%=      5-min Rain = 0
KST2 141752Z 15001KT 04/M02 A3041 RMK A01 T00361018  RH  068%=      5-min Rain = 0
KST2 141753Z 15001KT 04/M02 A3041 RMK A01 T00371015  RH  069%=      5-min Rain = 0
KST2 141754Z 19001KT 04/M02 A3041 RMK A01 T00381016  RH  068%=      5-min Rain = 0
KST2 141755Z 20002KT 04/M02 A3041 RMK A01 T00391017  RH  067%=      5-min Rain = 0
KST2 141756Z 18001KT 04/M02 A3041 RMK A01 T00381016  RH  068%=      5-min Rain = 0
KST2 141757Z 16002KT 04/M01 A3041 RMK A01 T00391014  RH  068%=      5-min Rain = 0
KST2 141758Z 17001KT 04/M01 A304 RMK A01 T00401012  RH  069%=      5-min Rain = 0
KST2 141759Z 19006KT 04/M01 A304 RMK A01 T00421009  RH  070%=      5-min Rain = 0
KST2 141800Z 17007KT 04/M01 A304 RMK A01 T00441005  RH  071%=      5-min Rain = 0
KST2 141801Z 18006KT 04/M01 A304 RMK A01 T00441007  RH  069%=      5-min Rain = 0
KST2 141802Z 18005KT 05/M01 A304 RMK A01 T00451009  RH  068%=      5-min Rain = 0
KST2 141803Z 16005KT 04/M01 A304 RMK A01 T00431012  RH  067%=      5-min Rain = 0
KST2 141804Z 13006KT 04/M01 A304 RMK A01 T00431010  RH  068%=      5-min Rain = 0
KST2 141805Z 14006KT 04/M01 A304 RMK A01 T00431010  RH  068%=      5-min Rain = 0
KST2 141806Z 14005KT 04/M01 A304 RMK A01 T00441011  RH  067%=      5-min Rain = 0
KST2 141807Z 13005KT 04/M01 A304 RMK A01 T00441011  RH  067%=      5-min Rain = 0
KST2 141808Z 13006KT 05/M01 A3039 RMK A01 T00451012  RH  067%=      5-min Rain = 0
KST2 141809Z 14006KT 05/M01 A3039 RMK A01 T00451011  RH  067%=      5-min Rain = 0
KST2 141810Z 15004KT 05/M01 A3039 RMK A01 T00451010  RH  068%=      5-min Rain = 0
KST2 141811Z 17004KT 05/M01 A3039 RMK A01 T00451010  RH  067%=      5-min Rain = 0
KST2 141812Z 18005KT 05/M01 A3039 RMK A01 T00461010  RH  067%=      5-min Rain = 0
KST2 141813Z 17006KT 05/M01 A3039 RMK A01 T00461008  RH  068%=      5-min Rain = 0
KST2 141814Z 18006KT 05/M01 A3039 RMK A01 T00471008  RH  068%=      5-min Rain = 0
KST2 141815Z 18008KT 05/M00 A3039 RMK A01 T00481004  RH  069%=      5-min Rain = 0
KST2 141816Z 17007KT 05/00 A3039 RMK A01 T00510001  RH  070%=      5-min Rain = 0
KST2 141817Z 18006KT 05/M00 A3039 RMK A01 T00511001  RH  069%=      5-min Rain = 0
KST2 141818Z 17006KT 05/M01 A3038 RMK A01 T00511007  RH  066%=      5-min Rain = 0
KST2 141819Z 17005KT 05/M01 A3038 RMK A01 T00501006  RH  067%=      5-min Rain = 0
KST2 141820Z 17004KT 05/M01 A3038 RMK A01 T00501006  RH  067%=      5-min Rain = 0
KST2 141821Z 18005KT 05/M00 A3038 RMK A01 T00511004  RH  068%=      5-min Rain = 0
KST2 141822Z 16006KT 05/M01 A3038 RMK A01 T00521005  RH  067%=      5-min Rain = 0
KST2 141823Z 15007KT 05/M01 A3038 RMK A01 T00521008  RH  065%=      5-min Rain = 0
KST2 141824Z 14007KT 05/M01 A3038 RMK A01 T00511010  RH  065%=      5-min Rain = 0
KST2 141825Z 15005KT 05/M01 A3038 RMK A01 T00511011  RH  064%=      5-min Rain = 0
KST2 141826Z 17008KT 05/M01 A3037 RMK A01 T00511009  RH  065%=      5-min Rain = 0
KST2 141827Z 16008KT 05/M01 A3037 RMK A01 T00521007  RH  066%=      5-min Rain = 0
KST2 141828Z 17008KT 05/M00 A3037 RMK A01 T00531003  RH  067%=      5-min Rain = 0
KST2 141829Z 18008KT 05/M01 A3037 RMK A01 T00541005  RH  066%=      5-min Rain = 0
KST2 141830Z 17007KT 05/M01 A3037 RMK A01 T00531009  RH  064%=      5-min Rain = 0
KST2 141831Z 16008KT 05/M01 A3037 RMK A01 T00531007  RH  065%=      5-min Rain = 0
KST2 141832Z 17010KT 05/M00 A3037 RMK A01 T00531003  RH  067%=      5-min Rain = 0
KST2 141833Z 18007KT 05/M01 A3037 RMK A01 T00531008  RH  065%=      5-min Rain = 0
KST2 141834Z 17006KT 05/M01 A3037 RMK A01 T00511012  RH  064%=      5-min Rain = 0
KST2 141835Z 17006KT 05/M01 A3037 RMK A01 T00511010  RH  065%=      5-min Rain = 0
KST2 141836Z 17004KT 05/M01 A3037 RMK A01 T00511009  RH  065%=      5-min Rain = 0
KST2 141837Z 20004KT 05/M01 A3037 RMK A01 T00521007  RH  066%=      5-min Rain = 0
KST2 141838Z 18003KT 05/M01 A3037 RMK A01 T00531009  RH  064%=      5-min Rain = 0
KST2 141839Z 17003KT 05/M01 A3037 RMK A01 T00531010  RH  064%=      5-min Rain = 0
KST2 141840Z 16002KT 05/M01 A3037 RMK A01 T00531011  RH  063%=      5-min Rain = 0
KST2 141841Z 14002KT 05/M01 A3037 RMK A01 T00531009  RH  064%=      5-min Rain = 0
KST2 141842Z 11003KT 06/M01 A3036 RMK A01 T00551006  RH  065%=      5-min Rain = 0
KST2 141843Z 12004KT 06/M01 A3036 RMK A01 T00561007  RH  064%=      5-min Rain = 0
KST2 141844Z 14003KT 06/M01 A3036 RMK A01 T00561008  RH  063%=      5-min Rain = 0
KST2 141845Z 14002KT 06/M01 A3036 RMK A01 T00561007  RH  064%=      5-min Rain = 0
KST2 141846Z 16006KT 06/M01 A3036 RMK A01 T00581006  RH  064%=      5-min Rain = 0
KST2 141847Z 15007KT 06/M00 A3036 RMK A01 T00591003  RH  064%=      5-min Rain = 0
KST2 141848Z 15009KT 06/00 A3036 RMK A01 T00610000  RH  065%=      5-min Rain = 0
KST2 141849Z 15007KT 06/M00 A3036 RMK A01 T00621002  RH  064%=      5-min Rain = 0
KST2 141850Z 14006KT 06/M01 A3036 RMK A01 T00621005  RH  062%=      5-min Rain = 0
KST2 141851Z 13004KT 06/M01 A3036 RMK A01 T00611007  RH  062%=      5-min Rain = 0
KST2 141852Z 14003KT 06/M01 A3036 RMK A01 T00601008  RH  062%=      5-min Rain = 0
KST2 141853Z 18005KT 06/M01 A3036 RMK A01 T00611008  RH  062%=      5-min Rain = 0
KST2 141854Z 17007KT 06/00 A3036 RMK A01 T00620000  RH  064%=      5-min Rain = 0
KST2 141855Z 16006KT 06/M00 A3036 RMK A01 T00641003  RH  062%=      5-min Rain = 0
KST2 141856Z 16005KT 06/M01 A3035 RMK A01 T00631006  RH  061%=      5-min Rain = 0
KST2 141857Z 16007KT 06/M00 A3035 RMK A01 T00631003  RH  063%=      5-min Rain = 0
KST2 141858Z 14007KT 06/M01 A3035 RMK A01 T00631005  RH  062%=      5-min Rain = 0
KST2 141859Z 13006KT 06/M01 A3035 RMK A01 T00631006  RH  061%=      5-min Rain = 0
KST2 141900Z 14005KT 06/M01 A3035 RMK A01 T00631005  RH  062%=      5-min Rain = 0
KST2 141901Z 16008KT 07/00 A3035 RMK A01 T00650000  RH  063%=      5-min Rain = 0
KST2 141902Z 15008KT 07/00 A3035 RMK A01 T00660001  RH  063%=      5-min Rain = 0
KST2 141903Z 17006KT 07/M00 A3035 RMK A01 T00661001  RH  062%=      5-min Rain = 0
KST2 141904Z 16004KT 07/00 A3035 RMK A01 T00670001  RH  063%=      5-min Rain = 0
KST2 141905Z 18006KT 07/00 A3035 RMK A01 T00670001  RH  063%=      5-min Rain = 0
KST2 141906Z 19007KT 07/00 A3035 RMK A01 T00680003  RH  063%=      5-min Rain = 0
KST2 141907Z 18005KT 07/M00 A3034 RMK A01 T00681001  RH  061%=      5-min Rain = 0
KST2 141908Z 19006KT 07/00 A3034 RMK A01 T00680001  RH  062%=      5-min Rain = 0
KST2 141909Z 18007KT 07/00 A3034 RMK A01 T00690003  RH  063%=      5-min Rain = 0
KST2 141910Z 17006KT 07/00 A3034 RMK A01 T00700002  RH  062%=      5-min Rain = 0
KST2 141911Z 17004KT 07/M00 A3034 RMK A01 T00691003  RH  060%=      5-min Rain = 0
KST2 141912Z 18007KT 07/00 A3034 RMK A01 T00690000  RH  061%=      5-min Rain = 0
KST2 141913Z 17006KT 07/M00 A3034 RMK A01 T00691002  RH  060%=      5-min Rain = 0
KST2 141914Z 18006KT 07/M00 A3034 RMK A01 T00681001  RH  061%=      5-min Rain = 0
KST2 141915Z 18004KT 07/00 A3034 RMK A01 T00690003  RH  063%=      5-min Rain = 0
KST2 141916Z 18004KT 07/01 A3034 RMK A01 T00710006  RH  063%=      5-min Rain = 0
KST2 141917Z 17005KT 07/01 A3034 RMK A01 T00730005  RH  062%=      5-min Rain = 0
KST2 141918Z 15006KT 08/01 A3034 RMK A01 T00750009  RH  063%=      5-min Rain = 0
KST2 141919Z 16005KT 08/01 A3034 RMK A01 T00750005  RH  061%=      5-min Rain = 0
KST2 141920Z 16005KT 08/01 A3034 RMK A01 T00750009  RH  063%=      5-min Rain = 0
KST2 141921Z 19007KT 08/01 A3034 RMK A01 T00760005  RH  061%=      5-min Rain = 0
KST2 141922Z 18007KT 08/00 A3034 RMK A01 T00760002  RH  060%=      5-min Rain = 0
KST2 141923Z 18007KT 08/00 A3034 RMK A01 T00750002  RH  060%=      5-min Rain = 0
KST2 141924Z 17007KT 07/00 A3034 RMK A01 T00740000  RH  059%=      5-min Rain = 0
KST2 141925Z 17007KT 07/00 A3033 RMK A01 T00730002  RH  061%=      5-min Rain = 0
KST2 141926Z 19005KT 07/00 A3033 RMK A01 T007400-0  RH  059%=      5-min Rain = 0
KST2 141927Z 19005KT 07/M00 A3033 RMK A01 T00741004  RH  058%=      5-min Rain = 0
KST2 141928Z 17005KT 07/M01 A3033 RMK A01 T00731005  RH  057%=      5-min Rain = 0
KST2 141929Z 16003KT 07/M00 A3033 RMK A01 T00731003  RH  058%=      5-min Rain = 0
KST2 141930Z 15004KT 07/00 A3033 RMK A01 T007400-0  RH  059%=      5-min Rain = 0
KST2 141931Z 14008KT 08/00 A3033 RMK A01 T00750001  RH  059%=      5-min Rain = 0
KST2 141932Z 16008KT 08/00 A3033 RMK A01 T00770004  RH  060%=      5-min Rain = 0
KST2 141933Z 18008KT 08/00 A3032 RMK A01 T00780000  RH  058%=      5-min Rain = 0
KST2 141934Z 17009KT 08/M00 A3032 RMK A01 T00781003  RH  056%=      5-min Rain = 0
KST2 141935Z 17005KT 08/M01 A3032 RMK A01 T00771005  RH  056%=      5-min Rain = 0
KST2 141936Z 14006KT 08/M00 A3032 RMK A01 T00771001  RH  058%=      5-min Rain = 0
KST2 141937Z 14005KT 08/M01 A3032 RMK A01 T00781005  RH  056%=      5-min Rain = 0
KST2 141938Z 14006KT 08/00 A3032 RMK A01 T00780002  RH  059%=      5-min Rain = 0
KST2 141939Z 13006KT 08/01 A3032 RMK A01 T00810008  RH  060%=      5-min Rain = 0
KST2 141940Z 13006KT 08/01 A3032 RMK A01 T00830007  RH  059%=      5-min Rain = 0
KST2 141941Z 18005KT 08/M00 A3032 RMK A01 T00821001  RH  056%=      5-min Rain = 0
KST2 141942Z 19006KT 08/00 A3032 RMK A01 T00820001  RH  057%=      5-min Rain = 0
KST2 141943Z 22006KT 08/00 A3032 RMK A01 T00810001  RH  057%=      5-min Rain = 0
KST2 141944Z 19005KT 08/M00 A3032 RMK A01 T00811001  RH  056%=      5-min Rain = 0
KST2 141945Z 17005KT 08/00 A3032 RMK A01 T00810003  RH  058%=      5-min Rain = 0
KST2 141946Z 16005KT 08/00 A3032 RMK A01 T00820001  RH  057%=      5-min Rain = 0
KST2 141947Z 17004KT 08/M00 A3032 RMK A01 T00821004  RH  055%=      5-min Rain = 0
KST2 141948Z 17003KT 08/M01 A3031 RMK A01 T00821006  RH  054%=      5-min Rain = 0
KST2 141949Z 19005KT 08/M00 A3031 RMK A01 T00821002  RH  055%=      5-min Rain = 0
KST2 141950Z 18005KT 08/00 A3031 RMK A01 T00830000  RH  056%=      5-min Rain = 0
KST2 141951Z 16009KT 09/01 A3031 RMK A01 T00860007  RH  058%=      5-min Rain = 0
KST2 141952Z 15010KT 09/00 A3031 RMK A01 T00870003  RH  056%=      5-min Rain = 0
KST2 141953Z 14008KT 09/M00 A3031 RMK A01 T00861002  RH  054%=      5-min Rain = 0
KST2 141954Z 15008KT 09/00 A3031 RMK A01 T00860001  RH  055%=      5-min Rain = 0
KST2 141955Z 17008KT 09/01 A3031 RMK A01 T00870010  RH  058%=      5-min Rain = 0
KST2 141956Z 18007KT 09/01 A3031 RMK A01 T00890014  RH  059%=      5-min Rain = 0
KST2 141957Z 17006KT 09/01 A3031 RMK A01 T00900010  RH  057%=      5-min Rain = 0
KST2 141958Z 16009KT 09/01 A3031 RMK A01 T00900008  RH  057%=      5-min Rain = 0
KST2 141959Z 17005KT 09/M00 A303 RMK A01 T00891001  RH  053%=      5-min Rain = 0
KST2 142000Z 18006KT 09/00 A303 RMK A01 T00880004  RH  056%=      5-min Rain = 0
KST2 142001Z 19008KT 09/01 A303 RMK A01 T00890006  RH  056%=      5-min Rain = 0
KST2 142002Z 18007KT 09/00 A303 RMK A01 T00890004  RH  055%=      5-min Rain = 0
KST2 142003Z 19007KT 09/00 A303 RMK A01 T00890003  RH  055%=      5-min Rain = 0
KST2 142004Z 18006KT 09/01 A303 RMK A01 T00900005  RH  055%=      5-min Rain = 0
KST2 142005Z 16007KT 09/00 A303 RMK A01 T00900002  RH  054%=      5-min Rain = 0
KST2 142006Z 16010KT 09/01 A303 RMK A01 T00900007  RH  056%=      5-min Rain = 0
KST2 142007Z 17010KT 09/01 A303 RMK A01 T00910010  RH  057%=      5-min Rain = 0
KST2 142008Z 17009KT 09/00 A303 RMK A01 T00910002  RH  053%=      5-min Rain = 0
KST2 142009Z 17008KT 09/00 A303 RMK A01 T00900002  RH  054%=      5-min Rain = 0
KST2 142010Z 18008KT 09/00 A303 RMK A01 T00900004  RH  055%=      5-min Rain = 0
KST2 142011Z 17007KT 09/01 A303 RMK A01 T00900005  RH  055%=      5-min Rain = 0
KST2 142012Z 16007KT 09/01 A303 RMK A01 T00920014  RH  058%=      5-min Rain = 0
KST2 142013Z 16008KT 09/01 A303 RMK A01 T00940011  RH  056%=      5-min Rain = 0
KST2 142014Z 18009KT 10/02 A303 RMK A01 T00950016  RH  058%=      5-min Rain = 0
KST2 142015Z 18008KT 10/02 A303 RMK A01 T00960015  RH  057%=      5-min Rain = 0
KST2 142016Z 18009KT 10/01 A303 RMK A01 T00960010  RH  055%=      5-min Rain = 0
KST2 142017Z 19008KT 10/01 A303 RMK A01 T00950007  RH  054%=      5-min Rain = 0
KST2 142018Z 19007KT 10/01 A303 RMK A01 T00950005  RH  053%=      5-min Rain = 0
KST2 142019Z 18008KT 09/00 A303 RMK A01 T00940002  RH  052%=      5-min Rain = 0
KST2 142020Z 17009KT 09/00 A303 RMK A01 T00930003  RH  053%=      5-min Rain = 0
KST2 142021Z 16007KT 09/00 A303 RMK A01 T009300-0  RH  052%=      5-min Rain = 0
KST2 142022Z 16006KT 09/00 A303 RMK A01 T00930003  RH  054%=      5-min Rain = 0
KST2 142023Z 17006KT 09/01 A303 RMK A01 T00940010  RH  056%=      5-min Rain = 0
KST2 142024Z 18008KT 10/01 A3029 RMK A01 T00960013  RH  056%=      5-min Rain = 0
KST2 142025Z 19007KT 10/01 A3029 RMK A01 T00970011  RH  055%=      5-min Rain = 0
KST2 142026Z 19009KT 10/01 A3029 RMK A01 T00970006  RH  053%=      5-min Rain = 0
KST2 142027Z 20006KT 10/00 A3029 RMK A01 T00960004  RH  053%=      5-min Rain = 0
KST2 142028Z 19006KT 10/00 A3029 RMK A01 T00960004  RH  053%=      5-min Rain = 0
KST2 142029Z 18005KT 10/01 A3029 RMK A01 T00960009  RH  055%=      5-min Rain = 0
KST2 142030Z 18005KT 10/01 A3029 RMK A01 T00980010  RH  054%=      5-min Rain = 0
KST2 142031Z 18006KT 10/01 A3029 RMK A01 T00980008  RH  053%=      5-min Rain = 0
KST2 142032Z 17007KT 10/01 A3029 RMK A01 T00980006  RH  053%=      5-min Rain = 0
KST2 142033Z 17009KT 10/01 A3029 RMK A01 T00980005  RH  052%=      5-min Rain = 0
KST2 142034Z 15008KT 10/01 A3029 RMK A01 T00980009  RH  054%=      5-min Rain = 0
KST2 142035Z 14008KT 10/01 A3029 RMK A01 T00990010  RH  054%=      5-min Rain = 0
KST2 142036Z 14006KT 10/01 A3029 RMK A01 T01000009  RH  053%=      5-min Rain = 0
KST2 142037Z 16009KT 10/01 A3029 RMK A01 T01010013  RH  055%=      5-min Rain = 0
KST2 142038Z 17009KT 10/01 A3029 RMK A01 T01020010  RH  053%=      5-min Rain = 0
KST2 142039Z 18006KT 10/01 A3029 RMK A01 T01010006  RH  052%=      5-min Rain = 0
KST2 142040Z 18007KT 10/01 A3029 RMK A01 T01000008  RH  052%=      5-min Rain = 0
KST2 142041Z 16006KT 10/00 A3028 RMK A01 T01000004  RH  051%=      5-min Rain = 0
KST2 142042Z 17004KT 10/00 A3028 RMK A01 T01010003  RH  051%=      5-min Rain = 0
KST2 142043Z 16005KT 10/01 A3028 RMK A01 T01000005  RH  051%=      5-min Rain = 0
KST2 142044Z 16005KT 10/01 A3028 RMK A01 T01020014  RH  054%=      5-min Rain = 0
KST2 142045Z 17004KT 10/01 A3028 RMK A01 T01030005  RH  051%=      5-min Rain = 0
KST2 142046Z 17005KT 10/00 A3028 RMK A01 T01030004  RH  050%=      5-min Rain = 0
KST2 142047Z 18005KT 10/01 A3028 RMK A01 T01020006  RH  051%=      5-min Rain = 0
KST2 142048Z 16007KT 10/01 A3028 RMK A01 T01040010  RH  052%=      5-min Rain = 0
KST2 142049Z 18003KT 10/00 A3028 RMK A01 T01040003  RH  049%=      5-min Rain = 0
KST2 142050Z 20005KT 10/00 A3028 RMK A01 T01040003  RH  050%=      5-min Rain = 0
KST2 142051Z 20005KT 10/01 A3028 RMK A01 T01040005  RH  050%=      5-min Rain = 0
KST2 142052Z 20007KT 11/01 A3028 RMK A01 T01050006  RH  050%=      5-min Rain = 0
KST2 142053Z 19006KT 11/01 A3028 RMK A01 T01050005  RH  050%=      5-min Rain = 0
KST2 142054Z 19005KT 11/01 A3028 RMK A01 T01050006  RH  050%=      5-min Rain = 0
KST2 142055Z 17006KT 11/01 A3027 RMK A01 T01070010  RH  051%=      5-min Rain = 0
KST2 142056Z 19006KT 11/01 A3027 RMK A01 T01080012  RH  051%=      5-min Rain = 0
KST2 142057Z 18006KT 11/01 A3027 RMK A01 T01090012  RH  051%=      5-min Rain = 0
KST2 142058Z 17009KT 11/01 A3027 RMK A01 T01100013  RH  051%=      5-min Rain = 0
KST2 142059Z 17010KT 11/01 A3027 RMK A01 T01100009  RH  050%=      5-min Rain = 0
KST2 142100Z 18012KT 11/01 A3027 RMK A01 T01100013  RH  051%=      5-min Rain = 0
KST2 142101Z 18010KT 11/01 A3027 RMK A01 T01100006  RH  049%=      5-min Rain = 0
KST2 142102Z 18009KT 11/01 A3027 RMK A01 T01090008  RH  050%=      5-min Rain = 0
KST2 142103Z 18008KT 11/00 A3027 RMK A01 T01090003  RH  048%=      5-min Rain = 0
KST2 142104Z 18007KT 11/01 A3027 RMK A01 T01090008  RH  050%=      5-min Rain = 0
KST2 142105Z 19008KT 11/00 A3027 RMK A01 T01090004  RH  048%=      5-min Rain = 0
KST2 142106Z 19008KT 11/01 A3027 RMK A01 T01100005  RH  048%=      5-min Rain = 0
KST2 142107Z 19006KT 11/M00 A3027 RMK A01 T01091001  RH  046%=      5-min Rain = 0
KST2 142108Z 19008KT 11/01 A3027 RMK A01 T01090005  RH  049%=      5-min Rain = 0
KST2 142109Z 20011KT 11/01 A3027 RMK A01 T01110008  RH  049%=      5-min Rain = 0
KST2 142110Z 20009KT 11/01 A3027 RMK A01 T01120005  RH  048%=      5-min Rain = 0
KST2 142111Z 19008KT 11/01 A3027 RMK A01 T01120006  RH  048%=      5-min Rain = 0
KST2 142112Z 18007KT 11/00 A3027 RMK A01 T01120003  RH  047%=      5-min Rain = 0
KST2 142113Z 19007KT 11/01 A3026 RMK A01 T01120005  RH  047%=      5-min Rain = 0
KST2 142114Z 19007KT 11/01 A3026 RMK A01 T01130005  RH  047%=      5-min Rain = 0
KST2 142115Z 18006KT 11/00 A3026 RMK A01 T01130001  RH  046%=      5-min Rain = 0
KST2 142116Z 19008KT 11/01 A3026 RMK A01 T01140012  RH  050%=      5-min Rain = 0
KST2 142117Z 19011KT 12/01 A3026 RMK A01 T01160014  RH  049%=      5-min Rain = 0
KST2 142118Z 18015KT 12/01 A3026 RMK A01 T01160007  RH  047%=      5-min Rain = 0
KST2 142119Z 19014KT 12/01 A3026 RMK A01 T01160006  RH  047%=      5-min Rain = 0
KST2 142120Z 19013KT 12/00 A3026 RMK A01 T01160004  RH  046%=      5-min Rain = 0
KST2 142121Z 19012KT 12/00 A3026 RMK A01 T01150004  RH  046%=      5-min Rain = 0
KST2 142122Z 18014KT 12/01 A3026 RMK A01 T01150005  RH  047%=      5-min Rain = 0
KST2 142123Z 17012KT 12/00 A3026 RMK A01 T01150001  RH  045%=      5-min Rain = 0
KST2 142124Z 16013KT 12/01 A3026 RMK A01 T01150006  RH  047%=      5-min Rain = 0
KST2 142125Z 17011KT 12/01 A3026 RMK A01 T01150006  RH  047%=      5-min Rain = 0
KST2 142126Z 17011KT 12/01 A3026 RMK A01 T01150007  RH  048%=      5-min Rain = 0
KST2 142127Z 17010KT 12/01 A3026 RMK A01 T01150007  RH  047%=      5-min Rain = 0
KST2 142128Z 18012KT 12/01 A3026 RMK A01 T01150012  RH  049%=      5-min Rain = 0
KST2 142129Z 17012KT 12/01 A3026 RMK A01 T01160007  RH  047%=      5-min Rain = 0
KST2 142130Z 17012KT 12/01 A3026 RMK A01 T01160006  RH  047%=      5-min Rain = 0
KST2 142131Z 19015KT 12/01 A3025 RMK A01 T01160012  RH  049%=      5-min Rain = 0
KST2 142132Z 17014KT 12/01 A3025 RMK A01 T01160009  RH  047%=      5-min Rain = 0
KST2 142133Z 18014KT 12/01 A3025 RMK A01 T01160010  RH  048%=      5-min Rain = 0
KST2 142134Z 19012KT 12/01 A3025 RMK A01 T01160007  RH  047%=      5-min Rain = 0
KST2 142135Z 19012KT 12/01 A3025 RMK A01 T01160005  RH  046%=      5-min Rain = 0
KST2 142136Z 18013KT 12/00 A3025 RMK A01 T01160003  RH  046%=      5-min Rain = 0
KST2 142137Z 18013KT 12/01 A3025 RMK A01 T01160007  RH  047%=      5-min Rain = 0
KST2 142138Z 18013KT 12/00 A3025 RMK A01 T01160001  RH  045%=      5-min Rain = 0
KST2 142139Z 18011KT 12/00 A3025 RMK A01 T01150003  RH  046%=      5-min Rain = 0
KST2 142140Z 19011KT 12/00 A3025 RMK A01 T01150001  RH  045%=      5-min Rain = 0
KST2 142141Z 18009KT 12/00 A3025 RMK A01 T01150004  RH  047%=      5-min Rain = 0
KST2 142142Z 17011KT 12/01 A3025 RMK A01 T01160009  RH  048%=      5-min Rain = 0
KST2 142143Z 17014KT 12/01 A3025 RMK A01 T01160012  RH  049%=      5-min Rain = 0
KST2 142144Z 17013KT 12/01 A3025 RMK A01 T01170008  RH  047%=      5-min Rain = 0
KST2 142145Z 17010KT 12/02 A3025 RMK A01 T01170018  RH  051%=      5-min Rain = 0
KST2 142146Z 19010KT 12/02 A3025 RMK A01 T01180017  RH  050%=      5-min Rain = 0
KST2 142147Z 18012KT 12/01 A3025 RMK A01 T01180010  RH  048%=      5-min Rain = 0
KST2 142148Z 18012KT 12/02 A3025 RMK A01 T01180015  RH  049%=      5-min Rain = 0
KST2 142149Z 18013KT 12/02 A3025 RMK A01 T01190017  RH  050%=      5-min Rain = 0
KST2 142150Z 17011KT 12/02 A3025 RMK A01 T01190016  RH  049%=      5-min Rain = 0
KST2 142151Z 17011KT 12/02 A3025 RMK A01 T01190022  RH  052%=      5-min Rain = 0
KST2 142152Z 17011KT 12/02 A3025 RMK A01 T01200019  RH  050%=      5-min Rain = 0
KST2 142153Z 18009KT 12/01 A3025 RMK A01 T01190013  RH  048%=      5-min Rain = 0
KST2 142154Z 17009KT 12/01 A3025 RMK A01 T01180011  RH  048%=      5-min Rain = 0
KST2 142155Z 18012KT 12/01 A3025 RMK A01 T01180010  RH  048%=      5-min Rain = 0
KST2 142156Z 18010KT 12/02 A3025 RMK A01 T01180015  RH  049%=      5-min Rain = 0
KST2 142157Z 18010KT 12/02 A3025 RMK A01 T01180016  RH  049%=      5-min Rain = 0
KST2 142158Z 19012KT 12/02 A3024 RMK A01 T01190015  RH  049%=      5-min Rain = 0
KST2 142159Z 19013KT 12/01 A3025 RMK A01 T01200014  RH  048%=      5-min Rain = 0
KST2 142200Z 18010KT 12/01 A3025 RMK A01 T01190007  RH  046%=      5-min Rain = 0
KST2 142201Z 17011KT 12/01 A3025 RMK A01 T01190009  RH  047%=      5-min Rain = 0
KST2 142202Z 17011KT 12/01 A3025 RMK A01 T01180013  RH  049%=      5-min Rain = 0
KST2 142203Z 17011KT 12/02 A3025 RMK A01 T01190016  RH  049%=      5-min Rain = 0
KST2 142204Z 17015KT 12/02 A3024 RMK A01 T01190015  RH  049%=      5-min Rain = 0
KST2 142205Z 16012KT 12/01 A3025 RMK A01 T01190012  RH  048%=      5-min Rain = 0
KST2 142206Z 17013KT 12/02 A3024 RMK A01 T01180018  RH  050%=      5-min Rain = 0
KST2 142207Z 18010KT 12/02 A3025 RMK A01 T01190019  RH  050%=      5-min Rain = 0
KST2 142208Z 18011KT 12/02 A3024 RMK A01 T01200017  RH  050%=      5-min Rain = 0
KST2 142209Z 18010KT 12/01 A3024 RMK A01 T01190011  RH  047%=      5-min Rain = 0
KST2 142210Z 18009KT 12/01 A3024 RMK A01 T01190014  RH  049%=      5-min Rain = 0
KST2 142211Z 18010KT 12/02 A3024 RMK A01 T01190018  RH  050%=      5-min Rain = 0
KST2 142212Z 17012KT 12/02 A3024 RMK A01 T01200020  RH  050%=      5-min Rain = 0
KST2 142213Z 17013KT 12/02 A3024 RMK A01 T01200019  RH  050%=      5-min Rain = 0
KST2 142214Z 17013KT 12/02 A3024 RMK A01 T01190016  RH  049%=      5-min Rain = 0
KST2 142215Z 17011KT 12/02 A3024 RMK A01 T01190017  RH  050%=      5-min Rain = 0
KST2 142216Z 18013KT 12/02 A3024 RMK A01 T01190019  RH  050%=      5-min Rain = 0
KST2 142217Z 17013KT 12/02 A3024 RMK A01 T01190016  RH  049%=      5-min Rain = 0
KST2 142218Z 18012KT 12/01 A3024 RMK A01 T01190012  RH  048%=      5-min Rain = 0
KST2 142219Z 17010KT 12/01 A3024 RMK A01 T01180009  RH  047%=      5-min Rain = 0
KST2 142220Z 16010KT 12/02 A3024 RMK A01 T01180017  RH  050%=      5-min Rain = 0
KST2 142221Z 17011KT 12/02 A3024 RMK A01 T01200023  RH  052%=      5-min Rain = 0
KST2 142222Z 17014KT 12/02 A3024 RMK A01 T01200020  RH  050%=      5-min Rain = 0
KST2 142223Z 18012KT 12/01 A3024 RMK A01 T01200013  RH  048%=      5-min Rain = 0
KST2 142224Z 17012KT 12/02 A3024 RMK A01 T01190016  RH  049%=      5-min Rain = 0
KST2 142225Z 17014KT 12/02 A3024 RMK A01 T01200024  RH  052%=      5-min Rain = 0
KST2 142226Z 17013KT 12/02 A3024 RMK A01 T01200019  RH  050%=      5-min Rain = 0
KST2 142227Z 17012KT 12/01 A3024 RMK A01 T01190012  RH  048%=      5-min Rain = 0
KST2 142228Z 17010KT 12/02 A3024 RMK A01 T01190023  RH  052%=      5-min Rain = 0
KST2 142229Z 17013KT 12/02 A3024 RMK A01 T01200020  RH  050%=      5-min Rain = 0
KST2 142230Z 17011KT 12/01 A3024 RMK A01 T01200012  RH  048%=      5-min Rain = 0
KST2 142231Z 16011KT 12/01 A3024 RMK A01 T01190012  RH  048%=      5-min Rain = 0
KST2 142232Z 17013KT 12/01 A3024 RMK A01 T01190014  RH  049%=      5-min Rain = 0
KST2 142233Z 18012KT 12/01 A3024 RMK A01 T01190014  RH  049%=      5-min Rain = 0
KST2 142234Z 18013KT 12/02 A3024 RMK A01 T01190018  RH  050%=      5-min Rain = 0
KST2 142235Z 18012KT 12/01 A3024 RMK A01 T01190014  RH  049%=      5-min Rain = 0
KST2 142236Z 17011KT 12/01 A3024 RMK A01 T01190013  RH  048%=      5-min Rain = 0
KST2 142237Z 16010KT 12/02 A3024 RMK A01 T01200024  RH  052%=      5-min Rain = 0
KST2 142238Z 16012KT 12/02 A3024 RMK A01 T01200017  RH  049%=      5-min Rain = 0
KST2 142239Z 16013KT 12/02 A3023 RMK A01 T01200019  RH  050%=      5-min Rain = 0
KST2 142240Z 16011KT 12/02 A3023 RMK A01 T01200024  RH  052%=      5-min Rain = 0
KST2 142241Z 17013KT 12/03 A3023 RMK A01 T01210026  RH  052%=      5-min Rain = 0
KST2 142242Z 17013KT 12/02 A3023 RMK A01 T01200021  RH  051%=      5-min Rain = 0
KST2 142243Z 17012KT 12/02 A3023 RMK A01 T01200021  RH  051%=      5-min Rain = 0
KST2 142244Z 17014KT 12/02 A3023 RMK A01 T01200024  RH  052%=      5-min Rain = 0
KST2 142245Z 17013KT 12/02 A3023 RMK A01 T01200015  RH  049%=      5-min Rain = 0
KST2 142246Z 17011KT 12/02 A3023 RMK A01 T01190017  RH  050%=      5-min Rain = 0
KST2 142247Z 17012KT 12/02 A3023 RMK A01 T01190023  RH  052%=      5-min Rain = 0
KST2 142248Z 17013KT 12/02 A3023 RMK A01 T01200019  RH  050%=      5-min Rain = 0
KST2 142249Z 17013KT 12/02 A3023 RMK A01 T01190017  RH  050%=      5-min Rain = 0
KST2 142250Z 17013KT 12/02 A3023 RMK A01 T01190015  RH  049%=      5-min Rain = 0
KST2 142251Z 18013KT 12/01 A3023 RMK A01 T01190013  RH  048%=      5-min Rain = 0
KST2 142252Z 17012KT 12/01 A3023 RMK A01 T01180014  RH  049%=      5-min Rain = 0
KST2 142253Z 18013KT 12/02 A3023 RMK A01 T01180015  RH  049%=      5-min Rain = 0
KST2 142254Z 17012KT 12/02 A3023 RMK A01 T01190018  RH  050%=      5-min Rain = 0
KST2 142255Z 16013KT 12/02 A3023 RMK A01 T01190016  RH  049%=      5-min Rain = 0
KST2 142256Z 17012KT 12/02 A3023 RMK A01 T01190016  RH  049%=      5-min Rain = 0
KST2 142257Z 17013KT 12/02 A3023 RMK A01 T01190017  RH  050%=      5-min Rain = 0
KST2 142258Z 17013KT 12/02 A3023 RMK A01 T01190018  RH  050%=      5-min Rain = 0
KST2 142259Z 17013KT 12/02 A3023 RMK A01 T01190015  RH  049%=      5-min Rain = 0
KST2 142300Z 17013KT 12/02 A3023 RMK A01 T01180016  RH  050%=      5-min Rain = 0
KST2 142301Z 16012KT 12/02 A3023 RMK A01 T01180018  RH  050%=      5-min Rain = 0
KST2 142302Z 16012KT 12/02 A3023 RMK A01 T01180019  RH  051%=      5-min Rain = 0
KST2 142303Z 17012KT 12/02 A3023 RMK A01 T01180019  RH  051%=      5-min Rain = 0
KST2 142304Z 16011KT 12/02 A3023 RMK A01 T01180017  RH  050%=      5-min Rain = 0
KST2 142305Z 17012KT 12/02 A3023 RMK A01 T01180015  RH  049%=      5-min Rain = 0
KST2 142306Z 17011KT 12/02 A3023 RMK A01 T01180016  RH  050%=      5-min Rain = 0
KST2 142307Z 16012KT 12/02 A3023 RMK A01 T01180018  RH  050%=      5-min Rain = 0
KST2 142308Z 16014KT 12/02 A3023 RMK A01 T01180019  RH  051%=      5-min Rain = 0
KST2 142309Z 17012KT 12/02 A3023 RMK A01 T01180017  RH  050%=      5-min Rain = 0
KST2 142310Z 17012KT 12/02 A3023 RMK A01 T01180021  RH  051%=      5-min Rain = 0
KST2 142311Z 17012KT 12/02 A3023 RMK A01 T01180020  RH  051%=      5-min Rain = 0
KST2 142312Z 17011KT 12/02 A3023 RMK A01 T01180016  RH  049%=      5-min Rain = 0
KST2 142313Z 17012KT 12/02 A3023 RMK A01 T01180019  RH  051%=      5-min Rain = 0
KST2 142314Z 16012KT 12/02 A3023 RMK A01 T01180020  RH  051%=      5-min Rain = 0
KST2 142315Z 17013KT 12/02 A3023 RMK A01 T01180020  RH  051%=      5-min Rain = 0
KST2 142316Z 17013KT 12/02 A3023 RMK A01 T01180019  RH  051%=      5-min Rain = 0
KST2 142317Z 17011KT 12/02 A3023 RMK A01 T01180022  RH  052%=      5-min Rain = 0
KST2 142318Z 16012KT 12/02 A3023 RMK A01 T01180024  RH  053%=      5-min Rain = 0
KST2 142319Z 17012KT 12/02 A3023 RMK A01 T01170022  RH  052%=      5-min Rain = 0
KST2 142320Z 16013KT 12/02 A3023 RMK A01 T01170022  RH  052%=      5-min Rain = 0
KST2 142321Z 17013KT 12/02 A3023 RMK A01 T01160021  RH  052%=      5-min Rain = 0
KST2 142322Z 17014KT 12/02 A3023 RMK A01 T01160018  RH  051%=      5-min Rain = 0
KST2 142323Z 17014KT 12/02 A3023 RMK A01 T01160016  RH  050%=      5-min Rain = 0
KST2 142324Z 17014KT 12/02 A3023 RMK A01 T01160019  RH  051%=      5-min Rain = 0
KST2 142325Z 17012KT 12/02 A3023 RMK A01 T01160021  RH  052%=      5-min Rain = 0
KST2 142326Z 17011KT 12/02 A3023 RMK A01 T01160022  RH  053%=      5-min Rain = 0
KST2 142327Z 17011KT 12/03 A3023 RMK A01 T01160027  RH  054%=      5-min Rain = 0
KST2 142328Z 16011KT 12/03 A3022 RMK A01 T01160025  RH  053%=      5-min Rain = 0
KST2 142329Z 17011KT 12/03 A3022 RMK A01 T01150026  RH  054%=      5-min Rain = 0
KST2 142330Z 17011KT 12/03 A3022 RMK A01 T01150026  RH  054%=      5-min Rain = 0
KST2 142331Z 17010KT 12/03 A3022 RMK A01 T01150028  RH  055%=      5-min Rain = 0
KST2 142332Z 18012KT 12/03 A3022 RMK A01 T01150027  RH  055%=      5-min Rain = 0
KST2 142333Z 18012KT 12/02 A3022 RMK A01 T01150024  RH  054%=      5-min Rain = 0
KST2 142334Z 18012KT 12/02 A3022 RMK A01 T01150023  RH  053%=      5-min Rain = 0
KST2 142335Z 18013KT 12/02 A3022 RMK A01 T01150024  RH  054%=      5-min Rain = 0
KST2 142336Z 18012KT 12/02 A3022 RMK A01 T01150024  RH  054%=      5-min Rain = 0
KST2 142337Z 18010KT 12/03 A3022 RMK A01 T01150027  RH  055%=      5-min Rain = 0
KST2 142338Z 18012KT 11/03 A3022 RMK A01 T01140027  RH  055%=      5-min Rain = 0
KST2 142339Z 18012KT 11/03 A3022 RMK A01 T01140025  RH  054%=      5-min Rain = 0
KST2 142340Z 17011KT 11/03 A3022 RMK A01 T01140028  RH  055%=      5-min Rain = 0
KST2 142341Z 17012KT 11/03 A3022 RMK A01 T01130027  RH  055%=      5-min Rain = 0
KST2 142342Z 17012KT 11/03 A3022 RMK A01 T01130025  RH  055%=      5-min Rain = 0
KST2 142343Z 17013KT 11/02 A3022 RMK A01 T01130024  RH  054%=      5-min Rain = 0
KST2 142344Z 17012KT 11/02 A3022 RMK A01 T01130024  RH  054%=      5-min Rain = 0
KST2 142345Z 17012KT 11/03 A3022 RMK A01 T01130026  RH  055%=      5-min Rain = 0
KST2 142346Z 17012KT 11/02 A3022 RMK A01 T01120023  RH  054%=      5-min Rain = 0
KST2 142347Z 17011KT 11/03 A3022 RMK A01 T01120025  RH  055%=      5-min Rain = 0
KST2 142348Z 17012KT 11/03 A3022 RMK A01 T01120025  RH  055%=      5-min Rain = 0
KST2 142349Z 17012KT 11/03 A3022 RMK A01 T01120025  RH  055%=      5-min Rain = 0
KST2 142350Z 17012KT 11/02 A3022 RMK A01 T01120024  RH  055%=      5-min Rain = 0
KST2 142351Z 17012KT 11/03 A3022 RMK A01 T01120025  RH  055%=      5-min Rain = 0
KST2 142352Z 17011KT 11/03 A3022 RMK A01 T01110026  RH  056%=      5-min Rain = 0
KST2 142353Z 17011KT 11/03 A3023 RMK A01 T01100027  RH  057%=      5-min Rain = 0
KST2 142354Z 17011KT 11/03 A3023 RMK A01 T01100028  RH  057%=      5-min Rain = 0
KST2 142355Z 17011KT 11/03 A3023 RMK A01 T01090028  RH  057%=      5-min Rain = 0
KST2 142356Z 17011KT 11/03 A3023 RMK A01 T01090028  RH  057%=      5-min Rain = 0
KST2 142357Z 17012KT 11/03 A3022 RMK A01 T01080026  RH  057%=      5-min Rain = 0
KST2 142358Z 17012KT 11/02 A3022 RMK A01 T01080024  RH  056%=      5-min Rain = 0
KST2 142359Z 17011KT 11/03 A3022 RMK A01 T01080025  RH  056%=      5-min Rain = 0
KST2 150000Z 17011KT 11/03 A3022 RMK A01 T01080025  RH  057%=      5-min Rain = 0
KST2 150001Z 17011KT 11/03 A3022 RMK A01 T01070025  RH  057%=      5-min Rain = 0
KST2 150002Z 17012KT 11/03 A3022 RMK A01 T01070026  RH  057%=      5-min Rain = 0
KST2 150003Z 17011KT 11/03 A3022 RMK A01 T01060026  RH  057%=      5-min Rain = 0
KST2 150004Z 17012KT 11/03 A3022 RMK A01 T01060025  RH  057%=      5-min Rain = 0
KST2 150005Z 17012KT 11/02 A3022 RMK A01 T01050024  RH  057%=      5-min Rain = 0
KST2 150006Z 17012KT 11/03 A3022 RMK A01 T01050025  RH  058%=      5-min Rain = 0
KST2 150007Z 17011KT 11/03 A3022 RMK A01 T01050025  RH  058%=      5-min Rain = 0
KST2 150008Z 17011KT 11/03 A3022 RMK A01 T01050027  RH  059%=      5-min Rain = 0
KST2 150009Z 17012KT 10/03 A3022 RMK A01 T01040026  RH  058%=      5-min Rain = 0
KST2 150010Z 17012KT 10/02 A3022 RMK A01 T01040024  RH  058%=      5-min Rain = 0
KST2 150011Z 17012KT 10/03 A3022 RMK A01 T01040025  RH  058%=      5-min Rain = 0
KST2 150012Z 17011KT 10/03 A3022 RMK A01 T01030026  RH  059%=      5-min Rain = 0
KST2 150013Z 17011KT 10/03 A3022 RMK A01 T01030026  RH  059%=      5-min Rain = 0
KST2 150014Z 17011KT 10/03 A3022 RMK A01 T01020026  RH  059%=      5-min Rain = 0
KST2 150015Z 17011KT 10/03 A3022 RMK A01 T01020026  RH  060%=      5-min Rain = 0
KST2 150016Z 17010KT 10/03 A3022 RMK A01 T01010026  RH  060%=      5-min Rain = 0
KST2 150017Z 17010KT 10/03 A3022 RMK A01 T01000027  RH  060%=      5-min Rain = 0
KST2 150018Z 17010KT 10/03 A3022 RMK A01 T01000026  RH  060%=      5-min Rain = 0
KST2 150019Z 17011KT 10/03 A3022 RMK A01 T00990025  RH  060%=      5-min Rain = 0
KST2 150020Z 17011KT 10/03 A3023 RMK A01 T01000025  RH  060%=      5-min Rain = 0
KST2 150021Z 17011KT 10/02 A3023 RMK A01 T00990024  RH  059%=      5-min Rain = 0
KST2 150022Z 17010KT 10/03 A3023 RMK A01 T00990025  RH  060%=      5-min Rain = 0
KST2 150023Z 17011KT 10/02 A3023 RMK A01 T00980023  RH  060%=      5-min Rain = 0
KST2 150024Z 17011KT 10/02 A3023 RMK A01 T00980023  RH  059%=      5-min Rain = 0
KST2 150025Z 17012KT 10/02 A3023 RMK A01 T00990023  RH  059%=      5-min Rain = 0
KST2 150026Z 17011KT 10/02 A3023 RMK A01 T00980023  RH  059%=      5-min Rain = 0
KST2 150027Z 17011KT 10/02 A3023 RMK A01 T00980023  RH  060%=      5-min Rain = 0
KST2 150028Z 17011KT 10/02 A3023 RMK A01 T00980023  RH  060%=      5-min Rain = 0
KST2 150029Z 17011KT 10/02 A3022 RMK A01 T00970022  RH  060%=      5-min Rain = 0
KST2 150030Z 17010KT 10/02 A3022 RMK A01 T00970023  RH  060%=      5-min Rain = 0
KST2 150031Z 17010KT 10/02 A3022 RMK A01 T00960024  RH  061%=      5-min Rain = 0
KST2 150032Z 17010KT 10/02 A3022 RMK A01 T00950024  RH  061%=      5-min Rain = 0
KST2 150033Z 17010KT 09/02 A3022 RMK A01 T00940024  RH  061%=      5-min Rain = 0
KST2 150034Z 17010KT 09/02 A3022 RMK A01 T00940024  RH  062%=      5-min Rain = 0
KST2 150035Z 17009KT 09/02 A3022 RMK A01 T00930024  RH  062%=      5-min Rain = 0
KST2 150036Z 17010KT 09/03 A3022 RMK A01 T00930025  RH  062%=      5-min Rain = 0
KST2 150037Z 17009KT 09/02 A3022 RMK A01 T00930024  RH  062%=      5-min Rain = 0
KST2 150038Z 17009KT 09/02 A3023 RMK A01 T00920024  RH  062%=      5-min Rain = 0
KST2 150039Z 16010KT 09/03 A3022 RMK A01 T00920025  RH  063%=      5-min Rain = 0
KST2 150040Z 16010KT 09/02 A3022 RMK A01 T00910024  RH  063%=      5-min Rain = 0
KST2 150041Z 16009KT 09/03 A3022 RMK A01 T00910025  RH  063%=      5-min Rain = 0
KST2 150042Z 16010KT 09/03 A3022 RMK A01 T00900025  RH  064%=      5-min Rain = 0
KST2 150043Z 16010KT 09/03 A3022 RMK A01 T00890025  RH  064%=      5-min Rain = 0
KST2 150044Z 16010KT 09/03 A3022 RMK A01 T00890025  RH  064%=      5-min Rain = 0
KST2 150045Z 16010KT 09/02 A3022 RMK A01 T00880024  RH  064%=      5-min Rain = 0
KST2 150046Z 16010KT 09/03 A3022 RMK A01 T00880025  RH  064%=      5-min Rain = 0
KST2 150047Z 16011KT 09/03 A3022 RMK A01 T00880025  RH  065%=      5-min Rain = 0
KST2 150048Z 16011KT 09/02 A3022 RMK A01 T00870024  RH  064%=      5-min Rain = 0
KST2 150049Z 16011KT 09/02 A3022 RMK A01 T00870023  RH  064%=      5-min Rain = 0
KST2 150050Z 16011KT 09/02 A3022 RMK A01 T00880024  RH  064%=      5-min Rain = 0
KST2 150051Z 16011KT 09/02 A3022 RMK A01 T00880024  RH  064%=      5-min Rain = 0
KST2 150052Z 16011KT 09/02 A3022 RMK A01 T00870024  RH  064%=      5-min Rain = 0
KST2 150053Z 16011KT 09/02 A3022 RMK A01 T00870023  RH  064%=      5-min Rain = 0
KST2 150054Z 16011KT 09/02 A3022 RMK A01 T00870023  RH  064%=      5-min Rain = 0
KST2 150055Z 16011KT 09/02 A3022 RMK A01 T00860023  RH  064%=      5-min Rain = 0
KST2 150056Z 16010KT 09/02 A3022 RMK A01 T00860023  RH  065%=      5-min Rain = 0
KST2 150057Z 16011KT 09/02 A3022 RMK A01 T00860023  RH  065%=      5-min Rain = 0
KST2 150058Z 16010KT 09/02 A3022 RMK A01 T00850022  RH  064%=      5-min Rain = 0
KST2 150059Z 16010KT 09/02 A3022 RMK A01 T00850023  RH  065%=      5-min Rain = 0
KST2 150100Z 16010KT 09/02 A3022 RMK A01 T00850022  RH  065%=      5-min Rain = 0
KST2 150101Z 16010KT 09/02 A3022 RMK A01 T00850022  RH  064%=      5-min Rain = 0
KST2 150102Z 16010KT 09/02 A3022 RMK A01 T00850022  RH  064%=      5-min Rain = 0
KST2 150103Z 16009KT 08/02 A3022 RMK A01 T00840022  RH  065%=      5-min Rain = 0
KST2 150104Z 16010KT 08/02 A3022 RMK A01 T00840022  RH  065%=      5-min Rain = 0
KST2 150105Z 16009KT 08/02 A3022 RMK A01 T00840021  RH  065%=      5-min Rain = 0
KST2 150106Z 16009KT 08/02 A3022 RMK A01 T00840021  RH  065%=      5-min Rain = 0
KST2 150107Z 16009KT 08/02 A3022 RMK A01 T00840021  RH  065%=      5-min Rain = 0
KST2 150108Z 16009KT 08/02 A3022 RMK A01 T00840021  RH  064%=      5-min Rain = 0
KST2 150109Z 16009KT 08/02 A3022 RMK A01 T00840021  RH  065%=      5-min Rain = 0
KST2 150110Z 16009KT 08/02 A3022 RMK A01 T00830021  RH  065%=      5-min Rain = 0
KST2 150111Z 16009KT 08/02 A3022 RMK A01 T00830021  RH  065%=      5-min Rain = 0
KST2 150112Z 16009KT 08/02 A3022 RMK A01 T00820022  RH  066%=      5-min Rain = 0
KST2 150113Z 16009KT 08/02 A3022 RMK A01 T00810021  RH  066%=      5-min Rain = 0
KST2 150114Z 16009KT 08/02 A3022 RMK A01 T00810021  RH  066%=      5-min Rain = 0
KST2 150115Z 16009KT 08/02 A3022 RMK A01 T00810021  RH  066%=      5-min Rain = 0
KST2 150116Z 16009KT 08/02 A3022 RMK A01 T00800021  RH  066%=      5-min Rain = 0
KST2 150117Z 15009KT 08/02 A3022 RMK A01 T00800020  RH  066%=      5-min Rain = 0
KST2 150118Z 15009KT 08/02 A3022 RMK A01 T00790020  RH  066%=      5-min Rain = 0
KST2 150119Z 15008KT 08/02 A3022 RMK A01 T00780020  RH  066%=      5-min Rain = 0
KST2 150120Z 15008KT 08/02 A3022 RMK A01 T00780020  RH  067%=      5-min Rain = 0
KST2 150121Z 15008KT 08/02 A3022 RMK A01 T00770020  RH  067%=      5-min Rain = 0
KST2 150122Z 15008KT 08/02 A3022 RMK A01 T00760020  RH  068%=      5-min Rain = 0
KST2 150123Z 15008KT 08/02 A3022 RMK A01 T00750020  RH  068%=      5-min Rain = 0
KST2 150124Z 15008KT 07/02 A3022 RMK A01 T00740020  RH  068%=      5-min Rain = 0
KST2 150125Z 15008KT 07/02 A3022 RMK A01 T00740020  RH  069%=      5-min Rain = 0
KST2 150126Z 15008KT 07/02 A3022 RMK A01 T00730020  RH  069%=      5-min Rain = 0
KST2 150127Z 15008KT 07/02 A3022 RMK A01 T00730020  RH  069%=      5-min Rain = 0
KST2 150128Z 15008KT 07/02 A3022 RMK A01 T00720019  RH  069%=      5-min Rain = 0
KST2 150129Z 15008KT 07/02 A3022 RMK A01 T00720019  RH  069%=      5-min Rain = 0
KST2 150130Z 15008KT 07/02 A3022 RMK A01 T00710020  RH  070%=      5-min Rain = 0
KST2 150131Z 15008KT 07/02 A3022 RMK A01 T00710020  RH  070%=      5-min Rain = 0
KST2 150132Z 15008KT 07/02 A3022 RMK A01 T00700019  RH  070%=      5-min Rain = 0
KST2 150133Z 15008KT 07/02 A3022 RMK A01 T00700019  RH  070%=      5-min Rain = 0
KST2 150134Z 15008KT 07/02 A3022 RMK A01 T00690019  RH  070%=      5-min Rain = 0
KST2 150135Z 15008KT 07/02 A3022 RMK A01 T00690019  RH  070%=      5-min Rain = 0
KST2 150136Z 15008KT 07/02 A3022 RMK A01 T00690019  RH  071%=      5-min Rain = 0
KST2 150137Z 15008KT 07/02 A3022 RMK A01 T00680019  RH  071%=      5-min Rain = 0
KST2 150138Z 15008KT 07/02 A3021 RMK A01 T00680019  RH  071%=      5-min Rain = 0
KST2 150139Z 15008KT 07/02 A3021 RMK A01 T00680019  RH  071%=      5-min Rain = 0
KST2 150140Z 15008KT 07/02 A3021 RMK A01 T00680019  RH  071%=      5-min Rain = 0
KST2 150141Z 15008KT 07/02 A3021 RMK A01 T00680019  RH  071%=      5-min Rain = 0
KST2 150142Z 15008KT 07/02 A3021 RMK A01 T00680018  RH  071%=      5-min Rain = 0
KST2 150143Z 15008KT 07/02 A3021 RMK A01 T00680018  RH  071%=      5-min Rain = 0
KST2 150144Z 15008KT 07/02 A3021 RMK A01 T00680019  RH  071%=      5-min Rain = 0
KST2 150145Z 15008KT 07/02 A3021 RMK A01 T00680019  RH  071%=      5-min Rain = 0
KST2 150146Z 15008KT 07/02 A3021 RMK A01 T00670018  RH  071%=      5-min Rain = 0
KST2 150147Z 15008KT 07/02 A3021 RMK A01 T00670018  RH  071%=      5-min Rain = 0
KST2 150148Z 14008KT 07/02 A3021 RMK A01 T00670018  RH  071%=      5-min Rain = 0
KST2 150149Z 14008KT 07/02 A3021 RMK A01 T00660018  RH  071%=      5-min Rain = 0
KST2 150150Z 14008KT 07/02 A3021 RMK A01 T00650018  RH  072%=      5-min Rain = 0
KST2 150151Z 14008KT 07/02 A3021 RMK A01 T00660018  RH  072%=      5-min Rain = 0
KST2 150152Z 14008KT 07/02 A3021 RMK A01 T00650018  RH  072%=      5-min Rain = 0
KST2 150153Z 14007KT 07/02 A3021 RMK A01 T00650018  RH  072%=      5-min Rain = 0
KST2 150154Z 14008KT 07/02 A3021 RMK A01 T00650018  RH  072%=      5-min Rain = 0
KST2 150155Z 14007KT 06/02 A3022 RMK A01 T00640018  RH  072%=      5-min Rain = 0
KST2 150156Z 13007KT 06/02 A3022 RMK A01 T00640018  RH  072%=      5-min Rain = 0
KST2 150157Z 13007KT 06/02 A3022 RMK A01 T00640017  RH  072%=      5-min Rain = 0
KST2 150158Z 13007KT 06/02 A3022 RMK A01 T00640017  RH  072%=      5-min Rain = 0
KST2 150159Z 13007KT 06/02 A3022 RMK A01 T00640016  RH  072%=      5-min Rain = 0
KST2 150200Z 13007KT 06/02 A3022 RMK A01 T00640016  RH  071%=      5-min Rain = 0
KST2 150201Z 13007KT 06/02 A3022 RMK A01 T00640016  RH  071%=      5-min Rain = 0
KST2 150202Z 13007KT 06/02 A3022 RMK A01 T00640016  RH  071%=      5-min Rain = 0
KST2 150203Z 13007KT 06/02 A3022 RMK A01 T00640016  RH  071%=      5-min Rain = 0
KST2 150204Z 13006KT 06/02 A3022 RMK A01 T00630016  RH  072%=      5-min Rain = 0
KST2 150205Z 13007KT 06/02 A3022 RMK A01 T00630016  RH  071%=      5-min Rain = 0
KST2 150206Z 13007KT 06/02 A3022 RMK A01 T00640015  RH  071%=      5-min Rain = 0
KST2 150207Z 13007KT 06/02 A3022 RMK A01 T00630015  RH  071%=      5-min Rain = 0
KST2 150208Z 14007KT 06/02 A3022 RMK A01 T00630015  RH  071%=      5-min Rain = 0
KST2 150209Z 14007KT 06/02 A3022 RMK A01 T00630015  RH  072%=      5-min Rain = 0
KST2 150210Z 14007KT 06/02 A3022 RMK A01 T00620015  RH  072%=      5-min Rain = 0
KST2 150211Z 14007KT 06/02 A3022 RMK A01 T00610015  RH  072%=      5-min Rain = 0
KST2 150212Z 14007KT 06/01 A3022 RMK A01 T00610014  RH  072%=      5-min Rain = 0
KST2 150213Z 14007KT 06/01 A3022 RMK A01 T00610014  RH  072%=      5-min Rain = 0
KST2 150214Z 14007KT 06/01 A3022 RMK A01 T00600014  RH  072%=      5-min Rain = 0
KST2 150215Z 14007KT 06/01 A3022 RMK A01 T00590014  RH  073%=      5-min Rain = 0
KST2 150216Z 14008KT 06/01 A3022 RMK A01 T00590014  RH  073%=      5-min Rain = 0
KST2 150217Z 14008KT 06/01 A3022 RMK A01 T00590014  RH  073%=      5-min Rain = 0
KST2 150218Z 14008KT 06/01 A3022 RMK A01 T00580014  RH  074%=      5-min Rain = 0
KST2 150219Z 14008KT 06/02 A3022 RMK A01 T00580015  RH  074%=      5-min Rain = 0
KST2 150220Z 14008KT 06/02 A3022 RMK A01 T00570015  RH  074%=      5-min Rain = 0
KST2 150221Z 14008KT 06/02 A3022 RMK A01 T00570015  RH  074%=      5-min Rain = 0
KST2 150222Z 14008KT 06/02 A3022 RMK A01 T00570015  RH  074%=      5-min Rain = 0
KST2 150223Z 14008KT 06/02 A3022 RMK A01 T00570015  RH  074%=      5-min Rain = 0
KST2 150224Z 14008KT 06/02 A3022 RMK A01 T00570015  RH  074%=      5-min Rain = 0
KST2 150225Z 15008KT 06/01 A3022 RMK A01 T00570014  RH  074%=      5-min Rain = 0
KST2 150226Z 15008KT 06/02 A3022 RMK A01 T00570015  RH  074%=      5-min Rain = 0
KST2 150227Z 15008KT 06/02 A3022 RMK A01 T00570015  RH  074%=      5-min Rain = 0
KST2 150228Z 15008KT 06/02 A3022 RMK A01 T00570015  RH  074%=      5-min Rain = 0
KST2 150229Z 15008KT 06/02 A3022 RMK A01 T00570015  RH  074%=      5-min Rain = 0
KST2 150230Z 15008KT 06/01 A3022 RMK A01 T00570014  RH  074%=      5-min Rain = 0
KST2 150231Z 14009KT 06/01 A3022 RMK A01 T00570014  RH  074%=      5-min Rain = 0
KST2 150232Z 14009KT 06/01 A3022 RMK A01 T00580014  RH  074%=      5-min Rain = 0
KST2 150233Z 14009KT 06/01 A3022 RMK A01 T00580014  RH  074%=      5-min Rain = 0
KST2 150234Z 14009KT 06/01 A3022 RMK A01 T00570014  RH  074%=      5-min Rain = 0
KST2 150235Z 14009KT 06/01 A3022 RMK A01 T00580014  RH  074%=      5-min Rain = 0
KST2 150236Z 14009KT 06/02 A3022 RMK A01 T00580015  RH  074%=      5-min Rain = 0
KST2 150237Z 15008KT 06/02 A3022 RMK A01 T00580015  RH  074%=      5-min Rain = 0
KST2 150238Z 15008KT 06/01 A3022 RMK A01 T00570014  RH  074%=      5-min Rain = 0
KST2 150239Z 15008KT 06/01 A3022 RMK A01 T00570014  RH  074%=      5-min Rain = 0
KST2 150240Z 15008KT 06/01 A3022 RMK A01 T00570014  RH  074%=      5-min Rain = 0
KST2 150241Z 15008KT 06/02 A3022 RMK A01 T00570015  RH  074%=      5-min Rain = 0
KST2 150242Z 15008KT 06/01 A3022 RMK A01 T00560014  RH  074%=      5-min Rain = 0
KST2 150243Z 15008KT 06/01 A3022 RMK A01 T00560014  RH  075%=      5-min Rain = 0
KST2 150244Z 15007KT 06/01 A3022 RMK A01 T00560014  RH  075%=      5-min Rain = 0
KST2 150245Z 15007KT 06/01 A3022 RMK A01 T00560014  RH  074%=      5-min Rain = 0
KST2 150246Z 15008KT 06/01 A3022 RMK A01 T00560014  RH  075%=      5-min Rain = 0
KST2 150247Z 15008KT 06/01 A3022 RMK A01 T00560014  RH  074%=      5-min Rain = 0
KST2 150248Z 16008KT 06/01 A3022 RMK A01 T00560014  RH  074%=      5-min Rain = 0
KST2 150249Z 16009KT 06/01 A3022 RMK A01 T00560013  RH  074%=      5-min Rain = 0
KST2 150250Z 16008KT 06/01 A3022 RMK A01 T00560013  RH  073%=      5-min Rain = 0
KST2 150251Z 16009KT 06/01 A3022 RMK A01 T00570013  RH  073%=      5-min Rain = 0
KST2 150252Z 16009KT 06/01 A3022 RMK A01 T00580012  RH  073%=      5-min Rain = 0
KST2 150253Z 16010KT 06/01 A3022 RMK A01 T00580012  RH  072%=      5-min Rain = 0
KST2 150254Z 16009KT 06/01 A3022 RMK A01 T00590013  RH  072%=      5-min Rain = 0
KST2 150255Z 16010KT 06/01 A3022 RMK A01 T00590012  RH  072%=      5-min Rain = 0
KST2 150256Z 16010KT 06/01 A3022 RMK A01 T00590012  RH  072%=      5-min Rain = 0
KST2 150257Z 16009KT 06/01 A3022 RMK A01 T00590012  RH  072%=      5-min Rain = 0
KST2 150258Z 16009KT 06/01 A3022 RMK A01 T00590012  RH  072%=      5-min Rain = 0
KST2 150259Z 16009KT 06/01 A3022 RMK A01 T00590012  RH  072%=      5-min Rain = 0
KST2 150300Z 16009KT 06/01 A3022 RMK A01 T00580012  RH  072%=      5-min Rain = 0
KST2 150301Z 16009KT 06/01 A3022 RMK A01 T00580012  RH  072%=      5-min Rain = 0
KST2 150302Z 16009KT 06/01 A3022 RMK A01 T00580012  RH  072%=      5-min Rain = 0
KST2 150303Z 16009KT 06/01 A3022 RMK A01 T00580012  RH  073%=      5-min Rain = 0
KST2 150304Z 16010KT 06/01 A3022 RMK A01 T00570012  RH  073%=      5-min Rain = 0
KST2 150305Z 16009KT 06/01 A3022 RMK A01 T00570012  RH  073%=      5-min Rain = 0
KST2 150306Z 16010KT 06/01 A3022 RMK A01 T00570012  RH  073%=      5-min Rain = 0
KST2 150307Z 16010KT 06/01 A3022 RMK A01 T00570012  RH  072%=      5-min Rain = 0
KST2 150308Z 16010KT 06/01 A3022 RMK A01 T00570011  RH  072%=      5-min Rain = 0
KST2 150309Z 16010KT 06/01 A3022 RMK A01 T00570011  RH  072%=      5-min Rain = 0
KST2 150310Z 16010KT 06/01 A3022 RMK A01 T00580012  RH  072%=      5-min Rain = 0
KST2 150311Z 16010KT 06/01 A3022 RMK A01 T00580012  RH  072%=      5-min Rain = 0
KST2 150312Z 16010KT 06/01 A3022 RMK A01 T00580012  RH  072%=      5-min Rain = 0
KST2 150313Z 16010KT 06/01 A3022 RMK A01 T00580012  RH  072%=      5-min Rain = 0
KST2 150314Z 16009KT 06/01 A3022 RMK A01 T00580012  RH  072%=      5-min Rain = 0
KST2 150315Z 16010KT 06/01 A3022 RMK A01 T00580012  RH  072%=      5-min Rain = 0
KST2 150316Z 16010KT 06/01 A3022 RMK A01 T00580012  RH  072%=      5-min Rain = 0
KST2 150317Z 16010KT 06/01 A3022 RMK A01 T00580012  RH  072%=      5-min Rain = 0
KST2 150318Z 16009KT 06/01 A3022 RMK A01 T00580011  RH  072%=      5-min Rain = 0
KST2 150319Z 16010KT 06/01 A3022 RMK A01 T00580012  RH  072%=      5-min Rain = 0
KST2 150320Z 16010KT 06/01 A3022 RMK A01 T00580011  RH  072%=      5-min Rain = 0
KST2 150321Z 16010KT 06/01 A3022 RMK A01 T00580012  RH  072%=      5-min Rain = 0
KST2 150322Z 16010KT 06/01 A3022 RMK A01 T00580012  RH  072%=      5-min Rain = 0
KST2 150323Z 16010KT 06/01 A3022 RMK A01 T00580012  RH  072%=      5-min Rain = 0
KST2 150324Z 16010KT 06/01 A3022 RMK A01 T00580012  RH  072%=      5-min Rain = 0
KST2 150325Z 16010KT 06/01 A3022 RMK A01 T00570012  RH  073%=      5-min Rain = 0
KST2 150326Z 16010KT 06/01 A3022 RMK A01 T00570013  RH  073%=      5-min Rain = 0
KST2 150327Z 16011KT 06/01 A3022 RMK A01 T00580012  RH  073%=      5-min Rain = 0
KST2 150328Z 16011KT 06/01 A3022 RMK A01 T00580012  RH  073%=      5-min Rain = 0
KST2 150329Z 16010KT 06/01 A3022 RMK A01 T00580012  RH  072%=      5-min Rain = 0
KST2 150330Z 16011KT 06/01 A3022 RMK A01 T00590013  RH  072%=      5-min Rain = 0
KST2 150331Z 16011KT 06/01 A3022 RMK A01 T00590013  RH  072%=      5-min Rain = 0
KST2 150332Z 16011KT 06/01 A3022 RMK A01 T00580013  RH  073%=      5-min Rain = 0
KST2 150333Z 16011KT 06/01 A3022 RMK A01 T00580013  RH  072%=      5-min Rain = 0
KST2 150334Z 16011KT 06/01 A3022 RMK A01 T00590013  RH  072%=      5-min Rain = 0
KST2 150335Z 16011KT 06/01 A3022 RMK A01 T00580013  RH  073%=      5-min Rain = 0
KST2 150336Z 16011KT 06/01 A3022 RMK A01 T00580013  RH  073%=      5-min Rain = 0
KST2 150337Z 16011KT 06/01 A3021 RMK A01 T00580013  RH  073%=      5-min Rain = 0
KST2 150338Z 16011KT 06/01 A3022 RMK A01 T00580013  RH  073%=      5-min Rain = 0
KST2 150339Z 16011KT 06/01 A3022 RMK A01 T00580013  RH  073%=      5-min Rain = 0
KST2 150340Z 16011KT 06/01 A3022 RMK A01 T00580013  RH  073%=      5-min Rain = 0
KST2 150341Z 16011KT 06/01 A3022 RMK A01 T00580013  RH  073%=      5-min Rain = 0
KST2 150342Z 16011KT 06/01 A3022 RMK A01 T00580014  RH  073%=      5-min Rain = 0
KST2 150343Z 16011KT 06/01 A3022 RMK A01 T00570013  RH  073%=      5-min Rain = 0
KST2 150344Z 16011KT 06/01 A3022 RMK A01 T00570013  RH  073%=      5-min Rain = 0
KST2 150345Z 16011KT 06/01 A3022 RMK A01 T00570013  RH  073%=      5-min Rain = 0
KST2 150346Z 16011KT 06/01 A3022 RMK A01 T00570013  RH  073%=      5-min Rain = 0
KST2 150347Z 16011KT 06/01 A3022 RMK A01 T00570013  RH  073%=      5-min Rain = 0
KST2 150348Z 16011KT 06/01 A3022 RMK A01 T00580014  RH  073%=      5-min Rain = 0
KST2 150349Z 16011KT 06/01 A3021 RMK A01 T00580014  RH  074%=      5-min Rain = 0
KST2 150350Z 16011KT 06/01 A3021 RMK A01 T00570014  RH  074%=      5-min Rain = 0
KST2 150351Z 16011KT 06/01 A3021 RMK A01 T00570014  RH  074%=      5-min Rain = 0
KST2 150352Z 16011KT 06/01 A3021 RMK A01 T00560014  RH  074%=      5-min Rain = 0
KST2 150353Z 16011KT 06/01 A3021 RMK A01 T00560014  RH  074%=      5-min Rain = 0
KST2 150354Z 16011KT 06/01 A3021 RMK A01 T00560014  RH  074%=      5-min Rain = 0
KST2 150355Z 16011KT 06/01 A3021 RMK A01 T00560014  RH  075%=      5-min Rain = 0
KST2 150356Z 16011KT 06/01 A3021 RMK A01 T00550014  RH  075%=      5-min Rain = 0
KST2 150357Z 16011KT 06/01 A3021 RMK A01 T00550014  RH  075%=      5-min Rain = 0
KST2 150358Z 16011KT 06/01 A3021 RMK A01 T00550014  RH  075%=      5-min Rain = 0
KST2 150359Z 16011KT 05/01 A3021 RMK A01 T00540014  RH  075%=      5-min Rain = 0
KST2 150400Z 16011KT 05/01 A3021 RMK A01 T00540014  RH  075%=      5-min Rain = 0
KST2 150401Z 16011KT 05/01 A3021 RMK A01 T00540014  RH  075%=      5-min Rain = 0
KST2 150402Z 16011KT 05/01 A3021 RMK A01 T00540014  RH  075%=      5-min Rain = 0
KST2 150403Z 16011KT 05/01 A3021 RMK A01 T00540014  RH  075%=      5-min Rain = 0
KST2 150404Z 16011KT 05/01 A3021 RMK A01 T00540014  RH  075%=      5-min Rain = 0
KST2 150405Z 16011KT 05/01 A3021 RMK A01 T00540014  RH  075%=      5-min Rain = 0
KST2 150406Z 16011KT 05/01 A3021 RMK A01 T00540014  RH  075%=      5-min Rain = 0
KST2 150407Z 16011KT 05/01 A3021 RMK A01 T00540014  RH  075%=      5-min Rain = 0
KST2 150408Z 16011KT 05/01 A3021 RMK A01 T00540014  RH  075%=      5-min Rain = 0
KST2 150409Z 16011KT 05/01 A3021 RMK A01 T00540014  RH  075%=      5-min Rain = 0
KST2 150410Z 16011KT 05/01 A3021 RMK A01 T00540014  RH  075%=      5-min Rain = 0
KST2 150411Z 16011KT 05/01 A3021 RMK A01 T00540014  RH  075%=      5-min Rain = 0
KST2 150412Z 16011KT 05/01 A3021 RMK A01 T00540014  RH  075%=      5-min Rain = 0
KST2 150413Z 16011KT 05/01 A3021 RMK A01 T00540014  RH  075%=      5-min Rain = 0
KST2 150414Z 16012KT 05/01 A3021 RMK A01 T00540014  RH  075%=      5-min Rain = 0
KST2 150415Z 16011KT 05/01 A3021 RMK A01 T00540014  RH  075%=      5-min Rain = 0
KST2 150416Z 16011KT 05/01 A3021 RMK A01 T00540014  RH  075%=      5-min Rain = 0
KST2 150417Z 16011KT 05/02 A3021 RMK A01 T00540015  RH  075%=      5-min Rain = 0
KST2 150418Z 16011KT 05/01 A3021 RMK A01 T00540014  RH  075%=      5-min Rain = 0
KST2 150419Z 16011KT 05/02 A3021 RMK A01 T00540015  RH  076%=      5-min Rain = 0
KST2 150420Z 16011KT 05/02 A3021 RMK A01 T00540015  RH  076%=      5-min Rain = 0
KST2 150421Z 16011KT 06/02 A3021 RMK A01 T00550015  RH  076%=      5-min Rain = 0
KST2 150422Z 16011KT 05/02 A3021 RMK A01 T00540015  RH  076%=      5-min Rain = 0
KST2 150423Z 16010KT 05/02 A3021 RMK A01 T00540015  RH  076%=      5-min Rain = 0
KST2 150424Z 16010KT 05/02 A3021 RMK A01 T00540015  RH  076%=      5-min Rain = 0
KST2 150425Z 16010KT 05/02 A3021 RMK A01 T00540015  RH  076%=      5-min Rain = 0
KST2 150426Z 16010KT 05/02 A3021 RMK A01 T00540015  RH  076%=      5-min Rain = 0
KST2 150427Z 16010KT 05/02 A3021 RMK A01 T00540015  RH  076%=      5-min Rain = 0
KST2 150428Z 16011KT 06/02 A3021 RMK A01 T00550015  RH  076%=      5-min Rain = 0
KST2 150429Z 16011KT 06/02 A3021 RMK A01 T00550015  RH  076%=      5-min Rain = 0
KST2 150430Z 16010KT 06/02 A3021 RMK A01 T00550015  RH  076%=      5-min Rain = 0
KST2 150431Z 16011KT 06/02 A3021 RMK A01 T00550015  RH  076%=      5-min Rain = 0
KST2 150432Z 16011KT 06/02 A3021 RMK A01 T00550015  RH  076%=      5-min Rain = 0
KST2 150433Z 16011KT 06/02 A3021 RMK A01 T00550015  RH  076%=      5-min Rain = 0
KST2 150434Z 16011KT 06/02 A3021 RMK A01 T00550015  RH  076%=      5-min Rain = 0
KST2 150435Z 16011KT 06/02 A302 RMK A01 T00550015  RH  075%=      5-min Rain = 0
KST2 150436Z 16011KT 06/02 A302 RMK A01 T00550015  RH  075%=      5-min Rain = 0
KST2 150437Z 16010KT 06/02 A302 RMK A01 T00550015  RH  075%=      5-min Rain = 0
KST2 150438Z 16010KT 06/02 A302 RMK A01 T00550016  RH  076%=      5-min Rain = 0
KST2 150439Z 16010KT 06/02 A302 RMK A01 T00550015  RH  076%=      5-min Rain = 0
KST2 150440Z 16011KT 06/02 A302 RMK A01 T00550015  RH  076%=      5-min Rain = 0
KST2 150441Z 16011KT 06/02 A302 RMK A01 T00550015  RH  075%=      5-min Rain = 0
KST2 150442Z 16011KT 06/02 A302 RMK A01 T00550015  RH  075%=      5-min Rain = 0
KST2 150443Z 16011KT 06/02 A302 RMK A01 T00550015  RH  075%=      5-min Rain = 0
KST2 150444Z 16011KT 06/02 A302 RMK A01 T00560015  RH  075%=      5-min Rain = 0
KST2 150445Z 16011KT 06/02 A302 RMK A01 T00560015  RH  075%=      5-min Rain = 0
KST2 150446Z 17011KT 06/02 A302 RMK A01 T00560015  RH  075%=      5-min Rain = 0
KST2 150447Z 16011KT 06/02 A302 RMK A01 T00570015  RH  075%=      5-min Rain = 0
KST2 150448Z 17011KT 06/02 A302 RMK A01 T00570015  RH  074%=      5-min Rain = 0
KST2 150449Z 17012KT 06/02 A302 RMK A01 T00570015  RH  074%=      5-min Rain = 0
KST2 150450Z 17012KT 06/02 A302 RMK A01 T00570015  RH  074%=      5-min Rain = 0
KST2 150451Z 17013KT 06/02 A302 RMK A01 T00580015  RH  074%=      5-min Rain = 0
KST2 150452Z 17012KT 06/02 A302 RMK A01 T00590015  RH  074%=      5-min Rain = 0
KST2 150453Z 17012KT 06/02 A302 RMK A01 T00590015  RH  073%=      5-min Rain = 0
KST2 150454Z 17012KT 06/02 A302 RMK A01 T00590015  RH  073%=      5-min Rain = 0
KST2 150455Z 17012KT 06/02 A302 RMK A01 T00590015  RH  073%=      5-min Rain = 0
KST2 150456Z 17012KT 06/02 A302 RMK A01 T00600016  RH  073%=      5-min Rain = 0
KST2 150457Z 17012KT 06/02 A302 RMK A01 T00600015  RH  073%=      5-min Rain = 0
KST2 150458Z 17012KT 06/02 A302 RMK A01 T00610015  RH  073%=      5-min Rain = 0
KST2 150459Z 17013KT 06/02 A302 RMK A01 T00620016  RH  072%=      5-min Rain = 0
KST2 150500Z 17013KT 06/02 A302 RMK A01 T00620016  RH  072%=      5-min Rain = 0
KST2 150501Z 17012KT 06/02 A302 RMK A01 T00630016  RH  072%=      5-min Rain = 0
KST2 150502Z 17013KT 06/02 A302 RMK A01 T00630016  RH  072%=      5-min Rain = 0
KST2 150503Z 17013KT 06/02 A302 RMK A01 T00630016  RH  072%=      5-min Rain = 0
KST2 150504Z 17014KT 06/02 A302 RMK A01 T00630016  RH  072%=      5-min Rain = 0
KST2 150505Z 17015KT 06/02 A302 RMK A01 T00630016  RH  072%=      5-min Rain = 0
KST2 150506Z 17016KT 06/02 A302 RMK A01 T00640016  RH  071%=      5-min Rain = 0
KST2 150507Z 17014KT 07/02 A302 RMK A01 T00650016  RH  071%=      5-min Rain = 0
KST2 150508Z 17014KT 07/02 A302 RMK A01 T00650016  RH  071%=      5-min Rain = 0
KST2 150509Z 17016KT 06/02 A302 RMK A01 T00640016  RH  071%=      5-min Rain = 0
KST2 150510Z 17015KT 07/02 A302 RMK A01 T00650016  RH  071%=      5-min Rain = 0
KST2 150511Z 17014KT 07/02 A302 RMK A01 T00650016  RH  071%=      5-min Rain = 0
KST2 150512Z 17016KT 06/02 A302 RMK A01 T00640016  RH  071%=      5-min Rain = 0
KST2 150513Z 17016KT 06/02 A3019 RMK A01 T00640016  RH  071%=      5-min Rain = 0
KST2 150514Z 17016KT 06/02 A3019 RMK A01 T00640016  RH  071%=      5-min Rain = 0
KST2 150515Z 17016KT 07/02 A3019 RMK A01 T00650016  RH  071%=      5-min Rain = 0
KST2 150516Z 17016KT 07/02 A3019 RMK A01 T00650016  RH  071%=      5-min Rain = 0
KST2 150517Z 17016KT 07/02 A3019 RMK A01 T00650016  RH  071%=      5-min Rain = 0
KST2 150518Z 17016KT 07/02 A3019 RMK A01 T00650016  RH  071%=      5-min Rain = 0
KST2 150519Z 16015KT 07/02 A3019 RMK A01 T00650016  RH  071%=      5-min Rain = 0
KST2 150520Z 17015KT 06/02 A3019 RMK A01 T00640016  RH  071%=      5-min Rain = 0
KST2 150521Z 17016KT 06/02 A3019 RMK A01 T00640016  RH  071%=      5-min Rain = 0
KST2 150522Z 17016KT 06/02 A3019 RMK A01 T00640016  RH  071%=      5-min Rain = 0
KST2 150523Z 17017KT 07/02 A3019 RMK A01 T00650016  RH  071%=      5-min Rain = 0
KST2 150524Z 17015KT 07/02 A3019 RMK A01 T00650016  RH  071%=      5-min Rain = 0
KST2 150525Z 17015KT 07/02 A3019 RMK A01 T00650016  RH  071%=      5-min Rain = 0
KST2 150526Z 17016KT 07/02 A3019 RMK A01 T00650016  RH  071%=      5-min Rain = 0
KST2 150527Z 17016KT 07/02 A3019 RMK A01 T00650016  RH  071%=      5-min Rain = 0
KST2 150528Z 17016KT 07/02 A3019 RMK A01 T00650016  RH  071%=      5-min Rain = 0
KST2 150529Z 17015KT 07/02 A3019 RMK A01 T00650016  RH  071%=      5-min Rain = 0
KST2 150530Z 17016KT 07/02 A3019 RMK A01 T00650016  RH  071%=      5-min Rain = 0
KST2 150531Z 16013KT 07/02 A3019 RMK A01 T00650016  RH  071%=      5-min Rain = 0
KST2 150532Z 17015KT 06/02 A3019 RMK A01 T00640016  RH  071%=      5-min Rain = 0
KST2 150533Z 17015KT 06/02 A3019 RMK A01 T00640016  RH  071%=      5-min Rain = 0
KST2 150534Z 17014KT 06/02 A3019 RMK A01 T00640016  RH  071%=      5-min Rain = 0
KST2 150535Z 17014KT 06/02 A3019 RMK A01 T00640016  RH  071%=      5-min Rain = 0
KST2 150536Z 17014KT 06/02 A3019 RMK A01 T00640016  RH  071%=      5-min Rain = 0
KST2 150537Z 17016KT 06/02 A3019 RMK A01 T00630016  RH  072%=      5-min Rain = 0
KST2 150538Z 17014KT 06/02 A3019 RMK A01 T00640016  RH  071%=      5-min Rain = 0
KST2 150539Z 17014KT 06/02 A3019 RMK A01 T00640016  RH  072%=      5-min Rain = 0
KST2 150540Z 17014G19KT 06/02 A3019 RMK A01 T00640016  RH  072%=      5-min Rain = 0
KST2 150541Z 17014KT 06/02 A3019 RMK A01 T00630016  RH  072%=      5-min Rain = 0
KST2 150542Z 17013KT 06/02 A3019 RMK A01 T00630016  RH  072%=      5-min Rain = 0
KST2 150543Z 17015KT 06/02 A3019 RMK A01 T00620016  RH  072%=      5-min Rain = 0
KST2 150544Z 17015KT 06/02 A3019 RMK A01 T00620016  RH  072%=      5-min Rain = 0
KST2 150545Z 17015KT 06/02 A3019 RMK A01 T00630016  RH  072%=      5-min Rain = 0
KST2 150546Z 17016KT 06/02 A3018 RMK A01 T00630016  RH  072%=      5-min Rain = 0
KST2 150547Z 17016KT 06/02 A3018 RMK A01 T00630015  RH  072%=      5-min Rain = 0
KST2 150548Z 17014KT 06/02 A3019 RMK A01 T00640016  RH  072%=      5-min Rain = 0
KST2 150549Z 17014KT 06/02 A3019 RMK A01 T00630016  RH  072%=      5-min Rain = 0
KST2 150550Z 17014KT 06/02 A3019 RMK A01 T00630016  RH  072%=      5-min Rain = 0
KST2 150551Z 17015KT 06/02 A3019 RMK A01 T00630016  RH  072%=      5-min Rain = 0
KST2 150552Z 17014KT 06/02 A3019 RMK A01 T00630016  RH  072%=      5-min Rain = 0
KST2 150553Z 17013KT 06/02 A3019 RMK A01 T00630016  RH  072%=      5-min Rain = 0
KST2 150554Z 17015KT 06/02 A3019 RMK A01 T00620016  RH  072%=      5-min Rain = 0
KST2 150555Z 17015KT 06/02 A3019 RMK A01 T00620016  RH  072%=      5-min Rain = 0
KST2 150556Z 17014KT 06/02 A3019 RMK A01 T00620016  RH  072%=      5-min Rain = 0
KST2 150557Z 17014KT 06/02 A3019 RMK A01 T00620016  RH  072%=      5-min Rain = 0
KST2 150558Z 17014KT 06/02 A3019 RMK A01 T00620016  RH  072%=      5-min Rain = 0
KST2 150559Z 17014KT 06/02 A3019 RMK A01 T00620016  RH  072%=      5-min Rain = 0

Page generated in 0.1981 seconds.